Observation data for Tahoka on 01/12/2018      Previous  Date  Next       Current Mesonet Observations  Soil Data  Daily Summary Page  Observations in Plain Language
KTAS 120600Z 34002KT M04/M12 A3028 RMK A01 T10381119  RH  054%=      5-min Rain = 0
KTAS 120601Z 34002KT M04/M12 A3028 RMK A01 T10381119  RH  053%=      5-min Rain = 0
KTAS 120602Z 33002KT M04/M12 A3028 RMK A01 T10371118  RH  053%=      5-min Rain = 0
KTAS 120603Z 33002KT M04/M12 A3028 RMK A01 T10371117  RH  054%=      5-min Rain = 0
KTAS 120604Z 33002KT M04/M12 A3028 RMK A01 T10371115  RH  055%=      5-min Rain = 0
KTAS 120605Z 33002KT M04/M11 A3028 RMK A01 T10361114  RH  055%=      5-min Rain = 0
KTAS 120606Z 34002KT M04/M12 A3028 RMK A01 T10361115  RH  054%=      5-min Rain = 0
KTAS 120607Z 34002KT M04/M12 A3028 RMK A01 T10361115  RH  054%=      5-min Rain = 0
KTAS 120608Z 34002KT M04/M11 A3028 RMK A01 T10351114  RH  054%=      5-min Rain = 0
KTAS 120609Z 34002KT M04/M11 A3028 RMK A01 T10351114  RH  054%=      5-min Rain = 0
KTAS 120610Z 34002KT M04/M11 A3028 RMK A01 T10351114  RH  054%=      5-min Rain = 0
KTAS 120611Z 34002KT M04/M11 A3028 RMK A01 T10351113  RH  055%=      5-min Rain = 0
KTAS 120612Z 34002KT M04/M11 A3028 RMK A01 T10351112  RH  055%=      5-min Rain = 0
KTAS 120613Z 34002KT M04/M11 A3028 RMK A01 T10361111  RH  056%=      5-min Rain = 0
KTAS 120614Z 34002KT M04/M11 A3028 RMK A01 T10361112  RH  056%=      5-min Rain = 0
KTAS 120615Z 34002KT M04/M11 A3028 RMK A01 T10371113  RH  056%=      5-min Rain = 0
KTAS 120616Z 34002KT M04/M11 A3028 RMK A01 T10381113  RH  056%=      5-min Rain = 0
KTAS 120617Z 34002KT M04/M11 A3028 RMK A01 T10381113  RH  056%=      5-min Rain = 0
KTAS 120618Z 34002KT M04/M11 A3028 RMK A01 T10381113  RH  056%=      5-min Rain = 0
KTAS 120619Z 34002KT M04/M11 A3028 RMK A01 T10381113  RH  056%=      5-min Rain = 0
KTAS 120620Z 34002KT M04/M11 A3028 RMK A01 T10381113  RH  056%=      5-min Rain = 0
KTAS 120621Z 35002KT M04/M11 A3028 RMK A01 T10381113  RH  056%=      5-min Rain = 0
KTAS 120622Z 35002KT M04/M11 A3028 RMK A01 T10381114  RH  056%=      5-min Rain = 0
KTAS 120623Z 35002KT M04/M12 A3028 RMK A01 T10381115  RH  055%=      5-min Rain = 0
KTAS 120624Z 35002KT M04/M12 A3028 RMK A01 T10381117  RH  054%=      5-min Rain = 0
KTAS 120625Z 35002KT M04/M12 A3028 RMK A01 T10381118  RH  054%=      5-min Rain = 0
KTAS 120626Z 00002KT M04/M12 A3028 RMK A01 T10371118  RH  053%=      5-min Rain = 0
KTAS 120627Z 00002KT M04/M12 A3028 RMK A01 T10361119  RH  053%=      5-min Rain = 0
KTAS 120628Z 00002KT M04/M12 A3028 RMK A01 T10361119  RH  053%=      5-min Rain = 0
KTAS 120629Z 00002KT M04/M12 A3028 RMK A01 T10371120  RH  052%=      5-min Rain = 0
KTAS 120630Z 00002KT M04/M12 A3028 RMK A01 T10371120  RH  052%=      5-min Rain = 0
KTAS 120631Z 35002KT M04/M12 A3028 RMK A01 T10371121  RH  052%=      5-min Rain = 0
KTAS 120632Z 35002KT M04/M12 A3028 RMK A01 T10381122  RH  052%=      5-min Rain = 0
KTAS 120633Z 35002KT M04/M12 A3028 RMK A01 T10391123  RH  052%=      5-min Rain = 0
KTAS 120634Z 34001KT M04/M12 A3028 RMK A01 T10401124  RH  052%=      5-min Rain = 0
KTAS 120635Z 33001KT M04/M13 A3028 RMK A01 T10411126  RH  052%=      5-min Rain = 0
KTAS 120636Z 33001KT M04/M13 A3028 RMK A01 T10421128  RH  051%=      5-min Rain = 0
KTAS 120637Z 33001KT M04/M13 A3028 RMK A01 T10431129  RH  051%=      5-min Rain = 0
KTAS 120638Z 33001KT M04/M13 A3028 RMK A01 T10431128  RH  051%=      5-min Rain = 0
KTAS 120639Z 00000KT M04/M13 A3028 RMK A01 T10431128  RH  052%=      5-min Rain = 0
KTAS 120640Z 32000KT M04/M13 A3028 RMK A01 T10431126  RH  052%=      5-min Rain = 0
KTAS 120641Z 33001KT M04/M12 A3027 RMK A01 T10411123  RH  053%=      5-min Rain = 0
KTAS 120642Z 33001KT M04/M12 A3027 RMK A01 T10401120  RH  054%=      5-min Rain = 0
KTAS 120643Z 33001KT M04/M12 A3027 RMK A01 T10391120  RH  054%=      5-min Rain = 0
KTAS 120644Z 33001KT M04/M12 A3027 RMK A01 T10391120  RH  053%=      5-min Rain = 0
KTAS 120645Z 34001KT M04/M12 A3027 RMK A01 T10391121  RH  053%=      5-min Rain = 0
KTAS 120646Z 34001KT M04/M12 A3027 RMK A01 T10391122  RH  053%=      5-min Rain = 0
KTAS 120647Z 35002KT M04/M12 A3027 RMK A01 T10401122  RH  053%=      5-min Rain = 0
KTAS 120648Z 00002KT M04/M12 A3027 RMK A01 T10391121  RH  053%=      5-min Rain = 0
KTAS 120649Z 00002KT M04/M12 A3027 RMK A01 T10401121  RH  053%=      5-min Rain = 0
KTAS 120650Z 01001KT M04/M12 A3027 RMK A01 T10401121  RH  053%=      5-min Rain = 0
KTAS 120651Z 01001KT M04/M12 A3027 RMK A01 T10411121  RH  053%=      5-min Rain = 0
KTAS 120652Z 01001KT M04/M12 A3027 RMK A01 T10411121  RH  054%=      5-min Rain = 0
KTAS 120653Z 00000KT M04/M12 A3027 RMK A01 T10411121  RH  054%=      5-min Rain = 0
KTAS 120654Z 00000KT M04/M12 A3027 RMK A01 T10401120  RH  054%=      5-min Rain = 0
KTAS 120655Z 29001KT M04/M12 A3027 RMK A01 T10391120  RH  054%=      5-min Rain = 0
KTAS 120656Z 29000KT M04/M12 A3027 RMK A01 T10401119  RH  054%=      5-min Rain = 0
KTAS 120657Z 00000KT M04/M12 A3027 RMK A01 T10411119  RH  055%=      5-min Rain = 0
KTAS 120658Z 00000KT M04/M12 A3026 RMK A01 T10421118  RH  055%=      5-min Rain = 0
KTAS 120659Z 00000KT M04/M12 A3026 RMK A01 T10421117  RH  056%=      5-min Rain = 0
KTAS 120700Z 00000KT M04/M12 A3026 RMK A01 T10421115  RH  057%=      5-min Rain = 0
KTAS 120701Z 00000KT M04/M11 A3026 RMK A01 T10411114  RH  057%=      5-min Rain = 0
KTAS 120702Z 00000KT M04/M11 A3026 RMK A01 T10391111  RH  057%=      5-min Rain = 0
KTAS 120703Z 00000KT M04/M11 A3026 RMK A01 T10381111  RH  057%=      5-min Rain = 0
KTAS 120704Z 00000KT M04/M11 A3026 RMK A01 T10361110  RH  056%=      5-min Rain = 0
KTAS 120705Z 31000KT M04/M11 A3026 RMK A01 T10351110  RH  056%=      5-min Rain = 0
KTAS 120706Z 32001KT M04/M11 A3026 RMK A01 T10351111  RH  055%=      5-min Rain = 0
KTAS 120707Z 32001KT M04/M11 A3026 RMK A01 T10351112  RH  055%=      5-min Rain = 0
KTAS 120708Z 32000KT M04/M11 A3026 RMK A01 T10361112  RH  056%=      5-min Rain = 0
KTAS 120709Z 00000KT M04/M11 A3026 RMK A01 T10371111  RH  056%=      5-min Rain = 0
KTAS 120710Z 01001KT M04/M11 A3026 RMK A01 T10381111  RH  057%=      5-min Rain = 0
KTAS 120711Z 02001KT M04/M11 A3026 RMK A01 T10381112  RH  057%=      5-min Rain = 0
KTAS 120712Z 03001KT M04/M11 A3026 RMK A01 T10391111  RH  057%=      5-min Rain = 0
KTAS 120713Z 04001KT M04/M11 A3025 RMK A01 T10391111  RH  057%=      5-min Rain = 0
KTAS 120714Z 03002KT M04/M11 A3025 RMK A01 T10401112  RH  057%=      5-min Rain = 0
KTAS 120715Z 03002KT M04/M11 A3025 RMK A01 T10401112  RH  057%=      5-min Rain = 0
KTAS 120716Z 03001KT M04/M11 A3025 RMK A01 T10421114  RH  057%=      5-min Rain = 0
KTAS 120717Z 02001KT M04/M12 A3025 RMK A01 T10431116  RH  057%=      5-min Rain = 0
KTAS 120718Z 01002KT M04/M12 A3025 RMK A01 T10441115  RH  058%=      5-min Rain = 0
KTAS 120719Z 01002KT M04/M11 A3025 RMK A01 T10441111  RH  060%=      5-min Rain = 0
KTAS 120720Z 02002KT M04/M11 A3025 RMK A01 T10431107  RH  061%=      5-min Rain = 0
KTAS 120721Z 02002KT M04/M11 A3025 RMK A01 T10421105  RH  061%=      5-min Rain = 0
KTAS 120722Z 02002KT M04/M11 A3025 RMK A01 T10411106  RH  060%=      5-min Rain = 0
KTAS 120723Z 01002KT M04/M11 A3025 RMK A01 T10431110  RH  059%=      5-min Rain = 0
KTAS 120724Z 01002KT M05/M12 A3025 RMK A01 T10461118  RH  057%=      5-min Rain = 0
KTAS 120725Z 01002KT M05/M12 A3025 RMK A01 T10491123  RH  056%=      5-min Rain = 0
KTAS 120726Z 01002KT M05/M13 A3025 RMK A01 T10511125  RH  056%=      5-min Rain = 0
KTAS 120727Z 01002KT M05/M12 A3025 RMK A01 T10501121  RH  058%=      5-min Rain = 0
KTAS 120728Z 00002KT M05/M12 A3025 RMK A01 T10481117  RH  058%=      5-min Rain = 0
KTAS 120729Z 00002KT M05/M12 A3025 RMK A01 T10461117  RH  058%=      5-min Rain = 0
KTAS 120730Z 35002KT M05/M12 A3025 RMK A01 T10471121  RH  056%=      5-min Rain = 0
KTAS 120731Z 35001KT M05/M13 A3025 RMK A01 T10471125  RH  055%=      5-min Rain = 0
KTAS 120732Z 34001KT M05/M13 A3025 RMK A01 T10481127  RH  054%=      5-min Rain = 0
KTAS 120733Z 33001KT M05/M13 A3025 RMK A01 T10481129  RH  053%=      5-min Rain = 0
KTAS 120734Z 33001KT M05/M13 A3025 RMK A01 T10491130  RH  053%=      5-min Rain = 0
KTAS 120735Z 33001KT M05/M13 A3026 RMK A01 T10501130  RH  053%=      5-min Rain = 0
KTAS 120736Z 33001KT M05/M13 A3026 RMK A01 T10511131  RH  053%=      5-min Rain = 0
KTAS 120737Z 33001KT M05/M13 A3026 RMK A01 T10521132  RH  053%=      5-min Rain = 0
KTAS 120738Z 32001KT M05/M13 A3026 RMK A01 T10531133  RH  054%=      5-min Rain = 0
KTAS 120739Z 32001KT M06/M14 A3026 RMK A01 T10551135  RH  054%=      5-min Rain = 0
KTAS 120740Z 32000KT M06/M14 A3026 RMK A01 T10571135  RH  054%=      5-min Rain = 0
KTAS 120741Z 31000KT M06/M14 A3026 RMK A01 T10581135  RH  054%=      5-min Rain = 0
KTAS 120742Z 31001KT M06/M14 A3026 RMK A01 T10591136  RH  054%=      5-min Rain = 0
KTAS 120743Z 31001KT M06/M14 A3026 RMK A01 T10591136  RH  055%=      5-min Rain = 0
KTAS 120744Z 31001KT M06/M14 A3026 RMK A01 T10601136  RH  055%=      5-min Rain = 0
KTAS 120745Z 31001KT M06/M14 A3026 RMK A01 T10611135  RH  056%=      5-min Rain = 0
KTAS 120746Z 31001KT M06/M13 A3026 RMK A01 T10611134  RH  056%=      5-min Rain = 0
KTAS 120747Z 31001KT M06/M13 A3026 RMK A01 T10601133  RH  056%=      5-min Rain = 0
KTAS 120748Z 31001KT M06/M13 A3026 RMK A01 T10591132  RH  057%=      5-min Rain = 0
KTAS 120749Z 30001KT M06/M13 A3026 RMK A01 T10591132  RH  056%=      5-min Rain = 0
KTAS 120750Z 30001KT M06/M13 A3026 RMK A01 T10581130  RH  057%=      5-min Rain = 0
KTAS 120751Z 30002KT M06/M13 A3026 RMK A01 T10561128  RH  057%=      5-min Rain = 0
KTAS 120752Z 30002KT M06/M13 A3026 RMK A01 T10551126  RH  057%=      5-min Rain = 0
KTAS 120753Z 30002KT M05/M12 A3026 RMK A01 T10531123  RH  058%=      5-min Rain = 0
KTAS 120754Z 30002KT M05/M12 A3026 RMK A01 T10531123  RH  058%=      5-min Rain = 0
KTAS 120755Z 30001KT M05/M12 A3026 RMK A01 T10531123  RH  058%=      5-min Rain = 0
KTAS 120756Z 30002KT M05/M12 A3026 RMK A01 T10541124  RH  058%=      5-min Rain = 0
KTAS 120757Z 30001KT M05/M12 A3026 RMK A01 T10541124  RH  058%=      5-min Rain = 0
KTAS 120758Z 30001KT M06/M12 A3026 RMK A01 T10551124  RH  058%=      5-min Rain = 0
KTAS 120759Z 30001KT M06/M12 A3026 RMK A01 T10551124  RH  058%=      5-min Rain = 0
KTAS 120800Z 31001KT M06/M12 A3026 RMK A01 T10551124  RH  058%=      5-min Rain = 0
KTAS 120801Z 31001KT M05/M12 A3026 RMK A01 T10541123  RH  058%=      5-min Rain = 0
KTAS 120802Z 32001KT M05/M12 A3026 RMK A01 T10531123  RH  058%=      5-min Rain = 0
KTAS 120803Z 33001KT M05/M12 A3026 RMK A01 T10531124  RH  058%=      5-min Rain = 0
KTAS 120804Z 33001KT M05/M13 A3026 RMK A01 T10531125  RH  057%=      5-min Rain = 0
KTAS 120805Z 33001KT M05/M13 A3026 RMK A01 T10541127  RH  056%=      5-min Rain = 0
KTAS 120806Z 33002KT M06/M13 A3026 RMK A01 T10551130  RH  056%=      5-min Rain = 0
KTAS 120807Z 33002KT M06/M13 A3026 RMK A01 T10571130  RH  056%=      5-min Rain = 0
KTAS 120808Z 33002KT M06/M13 A3026 RMK A01 T10571131  RH  056%=      5-min Rain = 0
KTAS 120809Z 33002KT M06/M13 A3026 RMK A01 T10591132  RH  056%=      5-min Rain = 0
KTAS 120810Z 33002KT M06/M13 A3026 RMK A01 T10601132  RH  057%=      5-min Rain = 0
KTAS 120811Z 33002KT M06/M13 A3026 RMK A01 T10601131  RH  057%=      5-min Rain = 0
KTAS 120812Z 33002KT M06/M13 A3026 RMK A01 T10591129  RH  058%=      5-min Rain = 0
KTAS 120813Z 33003KT M06/M13 A3026 RMK A01 T10591129  RH  058%=      5-min Rain = 0
KTAS 120814Z 32002KT M06/M13 A3026 RMK A01 T10591130  RH  057%=      5-min Rain = 0
KTAS 120815Z 32003KT M06/M13 A3026 RMK A01 T10591129  RH  058%=      5-min Rain = 0
KTAS 120816Z 31002KT M06/M13 A3026 RMK A01 T10591127  RH  059%=      5-min Rain = 0
KTAS 120817Z 31002KT M06/M13 A3026 RMK A01 T10591126  RH  059%=      5-min Rain = 0
KTAS 120818Z 30002KT M06/M13 A3026 RMK A01 T10601127  RH  059%=      5-min Rain = 0
KTAS 120819Z 30002KT M06/M13 A3026 RMK A01 T10591125  RH  060%=      5-min Rain = 0
KTAS 120820Z 30002KT M06/M13 A3026 RMK A01 T10591125  RH  060%=      5-min Rain = 0
KTAS 120821Z 30002KT M06/M13 A3026 RMK A01 T10601126  RH  059%=      5-min Rain = 0
KTAS 120822Z 30002KT M06/M13 A3026 RMK A01 T10601127  RH  059%=      5-min Rain = 0
KTAS 120823Z 30002KT M06/M13 A3026 RMK A01 T10611128  RH  059%=      5-min Rain = 0
KTAS 120824Z 30002KT M06/M13 A3026 RMK A01 T10621129  RH  059%=      5-min Rain = 0
KTAS 120825Z 30002KT M06/M13 A3026 RMK A01 T10631130  RH  059%=      5-min Rain = 0
KTAS 120826Z 30002KT M06/M13 A3026 RMK A01 T10631128  RH  060%=      5-min Rain = 0
KTAS 120827Z 30002KT M06/M13 A3026 RMK A01 T10631127  RH  060%=      5-min Rain = 0
KTAS 120828Z 30002KT M06/M13 A3026 RMK A01 T10631129  RH  060%=      5-min Rain = 0
KTAS 120829Z 30002KT M06/M13 A3026 RMK A01 T10621127  RH  060%=      5-min Rain = 0
KTAS 120830Z 30002KT M06/M13 A3026 RMK A01 T10621127  RH  060%=      5-min Rain = 0
KTAS 120831Z 30002KT M06/M13 A3026 RMK A01 T10611126  RH  060%=      5-min Rain = 0
KTAS 120832Z 30002KT M06/M13 A3026 RMK A01 T10611127  RH  060%=      5-min Rain = 0
KTAS 120833Z 30002KT M06/M13 A3026 RMK A01 T10611128  RH  059%=      5-min Rain = 0
KTAS 120834Z 29002KT M06/M13 A3026 RMK A01 T10611127  RH  060%=      5-min Rain = 0
KTAS 120835Z 29002KT M06/M13 A3026 RMK A01 T10621128  RH  059%=      5-min Rain = 0
KTAS 120836Z 29002KT M06/M13 A3026 RMK A01 T10621129  RH  059%=      5-min Rain = 0
KTAS 120837Z 29002KT M06/M13 A3026 RMK A01 T10631130  RH  059%=      5-min Rain = 0
KTAS 120838Z 29001KT M06/M13 A3026 RMK A01 T10631131  RH  059%=      5-min Rain = 0
KTAS 120839Z 30002KT M06/M13 A3026 RMK A01 T10631131  RH  059%=      5-min Rain = 0
KTAS 120840Z 30002KT M06/M13 A3026 RMK A01 T10641132  RH  059%=      5-min Rain = 0
KTAS 120841Z 30002KT M06/M13 A3026 RMK A01 T10641131  RH  059%=      5-min Rain = 0
KTAS 120842Z 30003KT M06/M13 A3026 RMK A01 T10631132  RH  058%=      5-min Rain = 0
KTAS 120843Z 30002KT M06/M13 A3026 RMK A01 T10631131  RH  058%=      5-min Rain = 0
KTAS 120844Z 30002KT M06/M13 A3026 RMK A01 T10621129  RH  059%=      5-min Rain = 0
KTAS 120845Z 30003KT M06/M13 A3026 RMK A01 T10621130  RH  059%=      5-min Rain = 0
KTAS 120846Z 30003KT M06/M13 A3026 RMK A01 T10621129  RH  059%=      5-min Rain = 0
KTAS 120847Z 30003KT M06/M13 A3026 RMK A01 T10611127  RH  059%=      5-min Rain = 0
KTAS 120848Z 29003KT M06/M13 A3026 RMK A01 T10611128  RH  059%=      5-min Rain = 0
KTAS 120849Z 29003KT M06/M13 A3026 RMK A01 T10611128  RH  059%=      5-min Rain = 0
KTAS 120850Z 28003KT M06/M13 A3026 RMK A01 T10611129  RH  059%=      5-min Rain = 0
KTAS 120851Z 28003KT M06/M13 A3026 RMK A01 T10611130  RH  058%=      5-min Rain = 0
KTAS 120852Z 28003KT M06/M13 A3026 RMK A01 T10621130  RH  058%=      5-min Rain = 0
KTAS 120853Z 28003KT M06/M13 A3026 RMK A01 T10621131  RH  058%=      5-min Rain = 0
KTAS 120854Z 29002KT M06/M13 A3026 RMK A01 T10621130  RH  058%=      5-min Rain = 0
KTAS 120855Z 29002KT M06/M13 A3026 RMK A01 T10611129  RH  059%=      5-min Rain = 0
KTAS 120856Z 29002KT M06/M13 A3026 RMK A01 T10601128  RH  059%=      5-min Rain = 0
KTAS 120857Z 30002KT M06/M13 A3026 RMK A01 T10591128  RH  058%=      5-min Rain = 0
KTAS 120858Z 30002KT M06/M13 A3026 RMK A01 T10601130  RH  058%=      5-min Rain = 0
KTAS 120859Z 31002KT M06/M13 A3026 RMK A01 T10601131  RH  057%=      5-min Rain = 0
KTAS 120900Z 31002KT M06/M13 A3026 RMK A01 T10601131  RH  057%=      5-min Rain = 0
KTAS 120901Z 31002KT M06/M13 A3026 RMK A01 T10631134  RH  057%=      5-min Rain = 0
KTAS 120902Z 31002KT M06/M13 A3026 RMK A01 T10641131  RH  059%=      5-min Rain = 0
KTAS 120903Z 31002KT M07/M13 A3026 RMK A01 T10651129  RH  060%=      5-min Rain = 0
KTAS 120904Z 31002KT M07/M13 A3026 RMK A01 T10681133  RH  060%=      5-min Rain = 0
KTAS 120905Z 30003KT M07/M13 A3026 RMK A01 T10711134  RH  061%=      5-min Rain = 0
KTAS 120906Z 31002KT M07/M13 A3026 RMK A01 T10711133  RH  062%=      5-min Rain = 0
KTAS 120907Z 30002KT M07/M13 A3025 RMK A01 T10691127  RH  063%=      5-min Rain = 0
KTAS 120908Z 30002KT M07/M13 A3025 RMK A01 T10701129  RH  063%=      5-min Rain = 0
KTAS 120909Z 31002KT M07/M13 A3025 RMK A01 T10711130  RH  063%=      5-min Rain = 0
KTAS 120910Z 31002KT M07/M13 A3026 RMK A01 T10711131  RH  062%=      5-min Rain = 0
KTAS 120911Z 31002KT M07/M13 A3026 RMK A01 T10691130  RH  062%=      5-min Rain = 0
KTAS 120912Z 31002KT M07/M14 A3026 RMK A01 T10711135  RH  060%=      5-min Rain = 0
KTAS 120913Z 30002KT M07/M14 A3026 RMK A01 T10721139  RH  059%=      5-min Rain = 0
KTAS 120914Z 30001KT M07/M14 A3026 RMK A01 T10731142  RH  058%=      5-min Rain = 0
KTAS 120915Z 29001KT M07/M14 A3025 RMK A01 T10741143  RH  058%=      5-min Rain = 0
KTAS 120916Z 26000KT M08/M14 A3025 RMK A01 T10751143  RH  058%=      5-min Rain = 0
KTAS 120917Z 25000KT M08/M14 A3025 RMK A01 T10751143  RH  058%=      5-min Rain = 0
KTAS 120918Z 00000KT M08/M14 A3025 RMK A01 T10761143  RH  058%=      5-min Rain = 0
KTAS 120919Z 00000KT M08/M14 A3025 RMK A01 T10761143  RH  059%=      5-min Rain = 0
KTAS 120920Z 00000KT M08/M14 A3025 RMK A01 T10761142  RH  059%=      5-min Rain = 0
KTAS 120921Z 00000KT M08/M14 A3025 RMK A01 T10761142  RH  060%=      5-min Rain = 0
KTAS 120922Z 00000KT M08/M14 A3025 RMK A01 T10771141  RH  060%=      5-min Rain = 0
KTAS 120923Z 00000KT M08/M14 A3025 RMK A01 T10751138  RH  061%=      5-min Rain = 0
KTAS 120924Z 00000KT M08/M14 A3025 RMK A01 T10751135  RH  062%=      5-min Rain = 0
KTAS 120925Z 00000KT M07/M13 A3025 RMK A01 T10731132  RH  063%=      5-min Rain = 0
KTAS 120926Z 00000KT M07/M13 A3025 RMK A01 T10711128  RH  064%=      5-min Rain = 0
KTAS 120927Z 00000KT M07/M13 A3025 RMK A01 T10701125  RH  065%=      5-min Rain = 0
KTAS 120928Z 00000KT M07/M12 A3024 RMK A01 T10681123  RH  065%=      5-min Rain = 0
KTAS 120929Z 00000KT M07/M12 A3024 RMK A01 T10681124  RH  064%=      5-min Rain = 0
KTAS 120930Z 00000KT M07/M13 A3024 RMK A01 T10691128  RH  063%=      5-min Rain = 0
KTAS 120931Z 00000KT M07/M13 A3024 RMK A01 T10701132  RH  061%=      5-min Rain = 0
KTAS 120932Z 00000KT M07/M14 A3024 RMK A01 T10701135  RH  060%=      5-min Rain = 0
KTAS 120933Z 00000KT M07/M14 A3024 RMK A01 T10721138  RH  059%=      5-min Rain = 0
KTAS 120934Z 00000KT M07/M14 A3025 RMK A01 T10731140  RH  059%=      5-min Rain = 0
KTAS 120935Z 00000KT M07/M14 A3025 RMK A01 T10741141  RH  059%=      5-min Rain = 0
KTAS 120936Z 00000KT M08/M14 A3025 RMK A01 T10751139  RH  060%=      5-min Rain = 0
KTAS 120937Z 00000KT M08/M14 A3025 RMK A01 T10751138  RH  061%=      5-min Rain = 0
KTAS 120938Z 00000KT M08/M14 A3025 RMK A01 T10761140  RH  060%=      5-min Rain = 0
KTAS 120939Z 00000KT M08/M14 A3025 RMK A01 T10771140  RH  060%=      5-min Rain = 0
KTAS 120940Z 00000KT M08/M14 A3025 RMK A01 T10771139  RH  061%=      5-min Rain = 0
KTAS 120941Z 00000KT M08/M14 A3025 RMK A01 T10761138  RH  061%=      5-min Rain = 0
KTAS 120942Z 00000KT M08/M14 A3024 RMK A01 T10751138  RH  061%=      5-min Rain = 0
KTAS 120943Z 00000KT M08/M14 A3024 RMK A01 T10761140  RH  060%=      5-min Rain = 0
KTAS 120944Z 00000KT M08/M14 A3024 RMK A01 T10761141  RH  060%=      5-min Rain = 0
KTAS 120945Z 02000KT M08/M14 A3024 RMK A01 T10771142  RH  059%=      5-min Rain = 0
KTAS 120946Z 04000KT M08/M14 A3024 RMK A01 T10771143  RH  059%=      5-min Rain = 0
KTAS 120947Z 04000KT M08/M14 A3024 RMK A01 T10771143  RH  059%=      5-min Rain = 0
KTAS 120948Z 00000KT M08/M15 A3024 RMK A01 T10781145  RH  059%=      5-min Rain = 0
KTAS 120949Z 00000KT M08/M14 A3024 RMK A01 T10781144  RH  059%=      5-min Rain = 0
KTAS 120950Z 00000KT M08/M14 A3024 RMK A01 T10781143  RH  059%=      5-min Rain = 0
KTAS 120951Z 00000KT M08/M14 A3024 RMK A01 T10771142  RH  060%=      5-min Rain = 0
KTAS 120952Z 00000KT M08/M14 A3024 RMK A01 T10771140  RH  060%=      5-min Rain = 0
KTAS 120953Z 09001KT M08/M14 A3024 RMK A01 T10751138  RH  061%=      5-min Rain = 0
KTAS 120954Z 09001KT M07/M14 A3024 RMK A01 T10741137  RH  061%=      5-min Rain = 0
KTAS 120955Z 09002KT M07/M14 A3024 RMK A01 T10731137  RH  060%=      5-min Rain = 0
KTAS 120956Z 10002KT M07/M14 A3024 RMK A01 T10731139  RH  059%=      5-min Rain = 0
KTAS 120957Z 10006KT M07/M14 A3024 RMK A01 T10741141  RH  059%=      5-min Rain = 0
KTAS 120958Z 10006KT M08/M14 A3024 RMK A01 T10751141  RH  059%=      5-min Rain = 0
KTAS 120959Z 10006KT M08/M15 A3024 RMK A01 T10801146  RH  059%=      5-min Rain = 0
KTAS 121000Z 10006KT M08/M15 A3024 RMK A01 T10831148  RH  059%=      5-min Rain = 0
KTAS 121001Z 10006KT M08/M15 A3024 RMK A01 T10841147  RH  060%=      5-min Rain = 0
KTAS 121002Z 11006KT M08/M14 A3024 RMK A01 T10811142  RH  061%=      5-min Rain = 0
KTAS 121003Z 11006KT M08/M14 A3024 RMK A01 T10771138  RH  062%=      5-min Rain = 0
KTAS 121004Z 11005KT M08/M14 A3024 RMK A01 T10751136  RH  061%=      5-min Rain = 0
KTAS 121005Z 11005KT M07/M14 A3024 RMK A01 T10721135  RH  061%=      5-min Rain = 0
KTAS 121006Z 10005KT M07/M13 A3024 RMK A01 T10711134  RH  061%=      5-min Rain = 0
KTAS 121007Z 10005KT M07/M13 A3024 RMK A01 T10691132  RH  061%=      5-min Rain = 0
KTAS 121008Z 10004KT M07/M13 A3024 RMK A01 T10671131  RH  060%=      5-min Rain = 0
KTAS 121009Z 11004KT M07/M13 A3024 RMK A01 T10661131  RH  060%=      5-min Rain = 0
KTAS 121010Z 11004KT M07/M13 A3024 RMK A01 T10661130  RH  060%=      5-min Rain = 0
KTAS 121011Z 11005KT M07/M13 A3024 RMK A01 T10651130  RH  060%=      5-min Rain = 0
KTAS 121012Z 11005KT M07/M13 A3023 RMK A01 T10651130  RH  060%=      5-min Rain = 0
KTAS 121013Z 11005KT M07/M13 A3023 RMK A01 T10651130  RH  060%=      5-min Rain = 0
KTAS 121014Z 11005KT M07/M13 A3023 RMK A01 T10661131  RH  060%=      5-min Rain = 0
KTAS 121015Z 11005KT M07/M13 A3023 RMK A01 T10671132  RH  060%=      5-min Rain = 0
KTAS 121016Z 11006KT M07/M13 A3023 RMK A01 T10681132  RH  060%=      5-min Rain = 0
KTAS 121017Z 11006KT M07/M13 A3023 RMK A01 T10681131  RH  061%=      5-min Rain = 0
KTAS 121018Z 11005KT M07/M13 A3023 RMK A01 T10671129  RH  061%=      5-min Rain = 0
KTAS 121019Z 11006KT M07/M13 A3023 RMK A01 T10671129  RH  061%=      5-min Rain = 0
KTAS 121020Z 11006KT M07/M13 A3023 RMK A01 T10661128  RH  061%=      5-min Rain = 0
KTAS 121021Z 11006KT M07/M13 A3023 RMK A01 T10651128  RH  061%=      5-min Rain = 0
KTAS 121022Z 11006KT M07/M13 A3023 RMK A01 T10651128  RH  061%=      5-min Rain = 0
KTAS 121023Z 11006KT M07/M13 A3023 RMK A01 T10651128  RH  061%=      5-min Rain = 0
KTAS 121024Z 12006KT M07/M13 A3023 RMK A01 T10651127  RH  061%=      5-min Rain = 0
KTAS 121025Z 12006KT M07/M13 A3023 RMK A01 T10651128  RH  061%=      5-min Rain = 0
KTAS 121026Z 12006KT M06/M13 A3023 RMK A01 T10641127  RH  061%=      5-min Rain = 0
KTAS 121027Z 12006KT M06/M13 A3023 RMK A01 T10631126  RH  061%=      5-min Rain = 0
KTAS 121028Z 12006KT M06/M13 A3023 RMK A01 T10621125  RH  061%=      5-min Rain = 0
KTAS 121029Z 12006KT M06/M13 A3023 RMK A01 T10611125  RH  060%=      5-min Rain = 0
KTAS 121030Z 12007KT M06/M13 A3023 RMK A01 T10601125  RH  060%=      5-min Rain = 0
KTAS 121031Z 12006KT M06/M13 A3023 RMK A01 T10601125  RH  060%=      5-min Rain = 0
KTAS 121032Z 13006KT M06/M13 A3023 RMK A01 T10591125  RH  060%=      5-min Rain = 0
KTAS 121033Z 13006KT M06/M13 A3023 RMK A01 T10591125  RH  059%=      5-min Rain = 0
KTAS 121034Z 13006KT M06/M13 A3024 RMK A01 T10591125  RH  059%=      5-min Rain = 0
KTAS 121035Z 13006KT M06/M13 A3024 RMK A01 T10591125  RH  059%=      5-min Rain = 0
KTAS 121036Z 13006KT M06/M13 A3024 RMK A01 T10581125  RH  059%=      5-min Rain = 0
KTAS 121037Z 13007KT M06/M13 A3023 RMK A01 T10581125  RH  059%=      5-min Rain = 0
KTAS 121038Z 13007KT M06/M13 A3023 RMK A01 T10581125  RH  059%=      5-min Rain = 0
KTAS 121039Z 13007KT M06/M13 A3023 RMK A01 T10581125  RH  059%=      5-min Rain = 0
KTAS 121040Z 13006KT M06/M13 A3023 RMK A01 T10591125  RH  059%=      5-min Rain = 0
KTAS 121041Z 13007KT M06/M13 A3023 RMK A01 T10581125  RH  059%=      5-min Rain = 0
KTAS 121042Z 14007KT M06/M13 A3023 RMK A01 T10581125  RH  059%=      5-min Rain = 0
KTAS 121043Z 14006KT M06/M13 A3023 RMK A01 T10581125  RH  059%=      5-min Rain = 0
KTAS 121044Z 14006KT M06/M13 A3023 RMK A01 T10571125  RH  059%=      5-min Rain = 0
KTAS 121045Z 13006KT M06/M13 A3023 RMK A01 T10571125  RH  059%=      5-min Rain = 0
KTAS 121046Z 14006KT M06/M13 A3023 RMK A01 T10571125  RH  059%=      5-min Rain = 0
KTAS 121047Z 14006KT M06/M13 A3023 RMK A01 T10581126  RH  058%=      5-min Rain = 0
KTAS 121048Z 14006KT M06/M13 A3023 RMK A01 T10581127  RH  058%=      5-min Rain = 0
KTAS 121049Z 15006KT M06/M13 A3023 RMK A01 T10581128  RH  058%=      5-min Rain = 0
KTAS 121050Z 15007KT M06/M13 A3023 RMK A01 T10591128  RH  058%=      5-min Rain = 0
KTAS 121051Z 15007KT M06/M13 A3023 RMK A01 T10601129  RH  058%=      5-min Rain = 0
KTAS 121052Z 15007KT M06/M13 A3023 RMK A01 T10611129  RH  059%=      5-min Rain = 0
KTAS 121053Z 15007KT M06/M13 A3023 RMK A01 T10611129  RH  059%=      5-min Rain = 0
KTAS 121054Z 15007KT M06/M13 A3023 RMK A01 T10601127  RH  059%=      5-min Rain = 0
KTAS 121055Z 15007KT M06/M13 A3023 RMK A01 T10591126  RH  059%=      5-min Rain = 0
KTAS 121056Z 16007KT M06/M13 A3023 RMK A01 T10591126  RH  059%=      5-min Rain = 0
KTAS 121057Z 16006KT M06/M13 A3023 RMK A01 T10591126  RH  059%=      5-min Rain = 0
KTAS 121058Z 16006KT M06/M13 A3023 RMK A01 T10591127  RH  059%=      5-min Rain = 0
KTAS 121059Z 17006KT M06/M13 A3023 RMK A01 T10601129  RH  058%=      5-min Rain = 0
KTAS 121100Z 17006KT M06/M13 A3023 RMK A01 T10621132  RH  058%=      5-min Rain = 0
KTAS 121101Z 17006KT M07/M14 A3023 RMK A01 T10651135  RH  058%=      5-min Rain = 0
KTAS 121102Z 17006KT M07/M14 A3024 RMK A01 T10671136  RH  058%=      5-min Rain = 0
KTAS 121103Z 17006KT M07/M14 A3024 RMK A01 T10691138  RH  058%=      5-min Rain = 0
KTAS 121104Z 17006KT M07/M14 A3023 RMK A01 T10711138  RH  059%=      5-min Rain = 0
KTAS 121105Z 17006KT M07/M14 A3023 RMK A01 T10721137  RH  060%=      5-min Rain = 0
KTAS 121106Z 18006KT M07/M14 A3023 RMK A01 T10721136  RH  060%=      5-min Rain = 0
KTAS 121107Z 18006KT M07/M14 A3024 RMK A01 T10711136  RH  060%=      5-min Rain = 0
KTAS 121108Z 18006KT M07/M14 A3024 RMK A01 T10701135  RH  060%=      5-min Rain = 0
KTAS 121109Z 17007KT M07/M13 A3024 RMK A01 T10701134  RH  060%=      5-min Rain = 0
KTAS 121110Z 18007KT M07/M14 A3024 RMK A01 T10701135  RH  060%=      5-min Rain = 0
KTAS 121111Z 18007KT M07/M14 A3024 RMK A01 T10701135  RH  060%=      5-min Rain = 0
KTAS 121112Z 18007KT M07/M14 A3024 RMK A01 T10711135  RH  060%=      5-min Rain = 0
KTAS 121113Z 17007KT M07/M14 A3024 RMK A01 T10711135  RH  060%=      5-min Rain = 0
KTAS 121114Z 17007KT M07/M13 A3024 RMK A01 T10701134  RH  060%=      5-min Rain = 0
KTAS 121115Z 17006KT M07/M13 A3023 RMK A01 T10701133  RH  060%=      5-min Rain = 0
KTAS 121116Z 18006KT M07/M13 A3023 RMK A01 T10691133  RH  060%=      5-min Rain = 0
KTAS 121117Z 17007KT M07/M13 A3023 RMK A01 T10691133  RH  060%=      5-min Rain = 0
KTAS 121118Z 17007KT M07/M13 A3023 RMK A01 T10691133  RH  060%=      5-min Rain = 0
KTAS 121119Z 18007KT M07/M13 A3023 RMK A01 T10691133  RH  060%=      5-min Rain = 0
KTAS 121120Z 18007KT M07/M13 A3023 RMK A01 T10691134  RH  060%=      5-min Rain = 0
KTAS 121121Z 18007KT M07/M14 A3023 RMK A01 T10701135  RH  060%=      5-min Rain = 0
KTAS 121122Z 17008KT M07/M13 A3023 RMK A01 T10701134  RH  060%=      5-min Rain = 0
KTAS 121123Z 18007KT M07/M13 A3023 RMK A01 T10701133  RH  061%=      5-min Rain = 0
KTAS 121124Z 17007KT M07/M13 A3023 RMK A01 T10701132  RH  061%=      5-min Rain = 0
KTAS 121125Z 17007KT M07/M13 A3023 RMK A01 T10701132  RH  061%=      5-min Rain = 0
KTAS 121126Z 17007KT M07/M13 A3023 RMK A01 T10701132  RH  061%=      5-min Rain = 0
KTAS 121127Z 17006KT M07/M13 A3023 RMK A01 T10691131  RH  061%=      5-min Rain = 0
KTAS 121128Z 17007KT M07/M13 A3023 RMK A01 T10681131  RH  061%=      5-min Rain = 0
KTAS 121129Z 17007KT M07/M13 A3023 RMK A01 T10681130  RH  061%=      5-min Rain = 0
KTAS 121130Z 18006KT M07/M13 A3023 RMK A01 T10671130  RH  061%=      5-min Rain = 0
KTAS 121131Z 18006KT M07/M13 A3023 RMK A01 T10671130  RH  061%=      5-min Rain = 0
KTAS 121132Z 18006KT M07/M13 A3023 RMK A01 T10671131  RH  061%=      5-min Rain = 0
KTAS 121133Z 18006KT M07/M13 A3023 RMK A01 T10681131  RH  061%=      5-min Rain = 0
KTAS 121134Z 18006KT M07/M13 A3023 RMK A01 T10681132  RH  060%=      5-min Rain = 0
KTAS 121135Z 18006KT M07/M13 A3023 RMK A01 T10691133  RH  060%=      5-min Rain = 0
KTAS 121136Z 18006KT M07/M13 A3024 RMK A01 T10691134  RH  060%=      5-min Rain = 0
KTAS 121137Z 18006KT M07/M13 A3024 RMK A01 T10701134  RH  060%=      5-min Rain = 0
KTAS 121138Z 18006KT M07/M13 A3024 RMK A01 T10711134  RH  060%=      5-min Rain = 0
KTAS 121139Z 18006KT M07/M13 A3024 RMK A01 T10711134  RH  061%=      5-min Rain = 0
KTAS 121140Z 18007KT M07/M13 A3024 RMK A01 T10711133  RH  061%=      5-min Rain = 0
KTAS 121141Z 18007KT M07/M13 A3024 RMK A01 T10711132  RH  062%=      5-min Rain = 0
KTAS 121142Z 18007KT M07/M13 A3024 RMK A01 T10711132  RH  062%=      5-min Rain = 0
KTAS 121143Z 18007KT M07/M13 A3024 RMK A01 T10711131  RH  062%=      5-min Rain = 0
KTAS 121144Z 19007KT M07/M13 A3024 RMK A01 T10711131  RH  062%=      5-min Rain = 0
KTAS 121145Z 19007KT M07/M13 A3024 RMK A01 T10711131  RH  062%=      5-min Rain = 0
KTAS 121146Z 18007KT M07/M13 A3024 RMK A01 T10711131  RH  063%=      5-min Rain = 0
KTAS 121147Z 18007KT M07/M13 A3024 RMK A01 T10711130  RH  063%=      5-min Rain = 0
KTAS 121148Z 18007KT M07/M13 A3024 RMK A01 T10711129  RH  063%=      5-min Rain = 0
KTAS 121149Z 18006KT M07/M13 A3024 RMK A01 T10711128  RH  064%=      5-min Rain = 0
KTAS 121150Z 18006KT M07/M13 A3024 RMK A01 T10711128  RH  064%=      5-min Rain = 0
KTAS 121151Z 18006KT M07/M13 A3024 RMK A01 T10711128  RH  064%=      5-min Rain = 0
KTAS 121152Z 18006KT M07/M13 A3023 RMK A01 T10711127  RH  064%=      5-min Rain = 0
KTAS 121153Z 18006KT M07/M13 A3024 RMK A01 T10701126  RH  064%=      5-min Rain = 0
KTAS 121154Z 18006KT M07/M13 A3024 RMK A01 T10701126  RH  064%=      5-min Rain = 0
KTAS 121155Z 18006KT M07/M13 A3024 RMK A01 T10701126  RH  064%=      5-min Rain = 0
KTAS 121156Z 19006KT M07/M13 A3024 RMK A01 T10701126  RH  064%=      5-min Rain = 0
KTAS 121157Z 19006KT M07/M13 A3023 RMK A01 T10701126  RH  064%=      5-min Rain = 0
KTAS 121158Z 19006KT M07/M12 A3023 RMK A01 T10691124  RH  065%=      5-min Rain = 0
KTAS 121159Z 19005KT M07/M12 A3024 RMK A01 T10681123  RH  065%=      5-min Rain = 0
KTAS 121200Z 20005KT M07/M12 A3024 RMK A01 T10671122  RH  065%=      5-min Rain = 0
KTAS 121201Z 20004KT M07/M12 A3024 RMK A01 T10661122  RH  064%=      5-min Rain = 0
KTAS 121202Z 20004KT M07/M12 A3024 RMK A01 T10661122  RH  064%=      5-min Rain = 0
KTAS 121203Z 20005KT M07/M12 A3024 RMK A01 T10651122  RH  064%=      5-min Rain = 0
KTAS 121204Z 20005KT M06/M12 A3024 RMK A01 T10641120  RH  064%=      5-min Rain = 0
KTAS 121205Z 20005KT M06/M12 A3024 RMK A01 T10631119  RH  064%=      5-min Rain = 0
KTAS 121206Z 20005KT M06/M12 A3024 RMK A01 T10621120  RH  064%=      5-min Rain = 0
KTAS 121207Z 20004KT M06/M12 A3024 RMK A01 T10621121  RH  063%=      5-min Rain = 0
KTAS 121208Z 21004KT M06/M12 A3024 RMK A01 T10631121  RH  063%=      5-min Rain = 0
KTAS 121209Z 20004KT M06/M12 A3024 RMK A01 T10631121  RH  063%=      5-min Rain = 0
KTAS 121210Z 20004KT M06/M12 A3024 RMK A01 T10621120  RH  064%=      5-min Rain = 0
KTAS 121211Z 20004KT M06/M12 A3024 RMK A01 T10621119  RH  064%=      5-min Rain = 0
KTAS 121212Z 20004KT M06/M12 A3024 RMK A01 T10611119  RH  064%=      5-min Rain = 0
KTAS 121213Z 20004KT M06/M12 A3024 RMK A01 T10611119  RH  064%=      5-min Rain = 0
KTAS 121214Z 20004KT M06/M12 A3023 RMK A01 T10611119  RH  064%=      5-min Rain = 0
KTAS 121215Z 20004KT M06/M12 A3023 RMK A01 T10611119  RH  064%=      5-min Rain = 0
KTAS 121216Z 20004KT M06/M12 A3023 RMK A01 T10621120  RH  064%=      5-min Rain = 0
KTAS 121217Z 19004KT M06/M12 A3023 RMK A01 T10621120  RH  064%=      5-min Rain = 0
KTAS 121218Z 19004KT M06/M12 A3023 RMK A01 T10621120  RH  064%=      5-min Rain = 0
KTAS 121219Z 19004KT M06/M12 A3023 RMK A01 T10631120  RH  064%=      5-min Rain = 0
KTAS 121220Z 20004KT M06/M12 A3024 RMK A01 T10631120  RH  064%=      5-min Rain = 0
KTAS 121221Z 20004KT M06/M12 A3024 RMK A01 T10631120  RH  064%=      5-min Rain = 0
KTAS 121222Z 19004KT M06/M12 A3024 RMK A01 T10631119  RH  064%=      5-min Rain = 0
KTAS 121223Z 19003KT M06/M12 A3024 RMK A01 T10631120  RH  064%=      5-min Rain = 0
KTAS 121224Z 19004KT M06/M12 A3024 RMK A01 T10641121  RH  064%=      5-min Rain = 0
KTAS 121225Z 19003KT M06/M12 A3024 RMK A01 T10641121  RH  064%=      5-min Rain = 0
KTAS 121226Z 20003KT M06/M12 A3024 RMK A01 T10641121  RH  064%=      5-min Rain = 0
KTAS 121227Z 20003KT M07/M12 A3024 RMK A01 T10651121  RH  064%=      5-min Rain = 0
KTAS 121228Z 20002KT M07/M12 A3024 RMK A01 T10651121  RH  064%=      5-min Rain = 0
KTAS 121229Z 20002KT M07/M12 A3024 RMK A01 T10661122  RH  064%=      5-min Rain = 0
KTAS 121230Z 20002KT M07/M12 A3024 RMK A01 T10661122  RH  065%=      5-min Rain = 0
KTAS 121231Z 19002KT M07/M12 A3024 RMK A01 T10671122  RH  065%=      5-min Rain = 0
KTAS 121232Z 19003KT M07/M12 A3024 RMK A01 T10671121  RH  065%=      5-min Rain = 0
KTAS 121233Z 19003KT M07/M12 A3023 RMK A01 T10671121  RH  065%=      5-min Rain = 0
KTAS 121234Z 19003KT M07/M12 A3023 RMK A01 T10671121  RH  065%=      5-min Rain = 0
KTAS 121235Z 19003KT M07/M12 A3024 RMK A01 T10671121  RH  065%=      5-min Rain = 0
KTAS 121236Z 19003KT M07/M12 A3024 RMK A01 T10671121  RH  065%=      5-min Rain = 0
KTAS 121237Z 19004KT M07/M12 A3024 RMK A01 T10671121  RH  065%=      5-min Rain = 0
KTAS 121238Z 20004KT M07/M12 A3024 RMK A01 T10671121  RH  065%=      5-min Rain = 0
KTAS 121239Z 19004KT M07/M12 A3024 RMK A01 T10661121  RH  065%=      5-min Rain = 0
KTAS 121240Z 19004KT M07/M12 A3024 RMK A01 T10661121  RH  065%=      5-min Rain = 0
KTAS 121241Z 19004KT M07/M12 A3024 RMK A01 T10661121  RH  065%=      5-min Rain = 0
KTAS 121242Z 19004KT M07/M12 A3024 RMK A01 T10661121  RH  065%=      5-min Rain = 0
KTAS 121243Z 19004KT M07/M12 A3024 RMK A01 T10661122  RH  065%=      5-min Rain = 0
KTAS 121244Z 18005KT M07/M12 A3024 RMK A01 T10671123  RH  064%=      5-min Rain = 0
KTAS 121245Z 18004KT M07/M12 A3024 RMK A01 T10681124  RH  064%=      5-min Rain = 0
KTAS 121246Z 18004KT M07/M12 A3024 RMK A01 T10691124  RH  064%=      5-min Rain = 0
KTAS 121247Z 18004KT M07/M13 A3024 RMK A01 T10691125  RH  065%=      5-min Rain = 0
KTAS 121248Z 18005KT M07/M13 A3024 RMK A01 T10701125  RH  065%=      5-min Rain = 0
KTAS 121249Z 18005KT M07/M13 A3024 RMK A01 T10711125  RH  065%=      5-min Rain = 0
KTAS 121250Z 19006KT M07/M12 A3024 RMK A01 T10711124  RH  066%=      5-min Rain = 0
KTAS 121251Z 19006KT M07/M12 A3024 RMK A01 T10711124  RH  066%=      5-min Rain = 0
KTAS 121252Z 19006KT M07/M13 A3024 RMK A01 T10711125  RH  065%=      5-min Rain = 0
KTAS 121253Z 19006KT M07/M13 A3024 RMK A01 T10721126  RH  065%=      5-min Rain = 0
KTAS 121254Z 19006KT M07/M13 A3024 RMK A01 T10731127  RH  065%=      5-min Rain = 0
KTAS 121255Z 19007KT M07/M13 A3024 RMK A01 T10731127  RH  065%=      5-min Rain = 0
KTAS 121256Z 19007KT M07/M13 A3024 RMK A01 T10731127  RH  065%=      5-min Rain = 0
KTAS 121257Z 19007KT M07/M13 A3024 RMK A01 T10721127  RH  065%=      5-min Rain = 0
KTAS 121258Z 19007KT M07/M13 A3024 RMK A01 T10721126  RH  065%=      5-min Rain = 0
KTAS 121259Z 19007KT M07/M13 A3024 RMK A01 T10721127  RH  065%=      5-min Rain = 0
KTAS 121300Z 19007KT M07/M13 A3025 RMK A01 T10731128  RH  065%=      5-min Rain = 0
KTAS 121301Z 19007KT M07/M13 A3025 RMK A01 T10731128  RH  065%=      5-min Rain = 0
KTAS 121302Z 18008KT M07/M13 A3025 RMK A01 T10741128  RH  065%=      5-min Rain = 0
KTAS 121303Z 18008KT M07/M13 A3025 RMK A01 T10741128  RH  066%=      5-min Rain = 0
KTAS 121304Z 18007KT M07/M13 A3025 RMK A01 T10741126  RH  066%=      5-min Rain = 0
KTAS 121305Z 18007KT M07/M13 A3024 RMK A01 T10741126  RH  066%=      5-min Rain = 0
KTAS 121306Z 18007KT M07/M13 A3024 RMK A01 T10731125  RH  066%=      5-min Rain = 0
KTAS 121307Z 18007KT M07/M12 A3024 RMK A01 T10721124  RH  067%=      5-min Rain = 0
KTAS 121308Z 18007KT M07/M12 A3024 RMK A01 T10711123  RH  067%=      5-min Rain = 0
KTAS 121309Z 18007KT M07/M12 A3024 RMK A01 T10711123  RH  067%=      5-min Rain = 0
KTAS 121310Z 18007KT M07/M12 A3024 RMK A01 T10711123  RH  066%=      5-min Rain = 0
KTAS 121311Z 18007KT M07/M12 A3025 RMK A01 T10711123  RH  066%=      5-min Rain = 0
KTAS 121312Z 18007KT M07/M12 A3025 RMK A01 T10711123  RH  067%=      5-min Rain = 0
KTAS 121313Z 18007KT M07/M12 A3025 RMK A01 T10711123  RH  067%=      5-min Rain = 0
KTAS 121314Z 18007KT M07/M12 A3025 RMK A01 T10721124  RH  067%=      5-min Rain = 0
KTAS 121315Z 18007KT M07/M12 A3025 RMK A01 T10721124  RH  066%=      5-min Rain = 0
KTAS 121316Z 18007KT M07/M12 A3025 RMK A01 T10721124  RH  066%=      5-min Rain = 0
KTAS 121317Z 18007KT M07/M12 A3024 RMK A01 T10721124  RH  066%=      5-min Rain = 0
KTAS 121318Z 19007KT M07/M13 A3025 RMK A01 T10731125  RH  066%=      5-min Rain = 0
KTAS 121319Z 19007KT M08/M13 A3025 RMK A01 T10751126  RH  067%=      5-min Rain = 0
KTAS 121320Z 19007KT M08/M13 A3025 RMK A01 T10761127  RH  067%=      5-min Rain = 0
KTAS 121321Z 19007KT M08/M13 A3025 RMK A01 T10761127  RH  067%=      5-min Rain = 0
KTAS 121322Z 19007KT M08/M13 A3025 RMK A01 T10761127  RH  067%=      5-min Rain = 0
KTAS 121323Z 19007KT M08/M13 A3025 RMK A01 T10761126  RH  067%=      5-min Rain = 0
KTAS 121324Z 19007KT M08/M13 A3025 RMK A01 T10751125  RH  067%=      5-min Rain = 0
KTAS 121325Z 19007KT M07/M12 A3025 RMK A01 T10741124  RH  067%=      5-min Rain = 0
KTAS 121326Z 19007KT M07/M12 A3025 RMK A01 T10731124  RH  067%=      5-min Rain = 0
KTAS 121327Z 19007KT M07/M12 A3025 RMK A01 T10731124  RH  067%=      5-min Rain = 0
KTAS 121328Z 19006KT M07/M12 A3025 RMK A01 T10731124  RH  067%=      5-min Rain = 0
KTAS 121329Z 19006KT M07/M12 A3025 RMK A01 T10731124  RH  067%=      5-min Rain = 0
KTAS 121330Z 19006KT M07/M12 A3025 RMK A01 T10731124  RH  067%=      5-min Rain = 0
KTAS 121331Z 18006KT M07/M12 A3025 RMK A01 T10721123  RH  067%=      5-min Rain = 0
KTAS 121332Z 18006KT M07/M12 A3025 RMK A01 T10721123  RH  067%=      5-min Rain = 0
KTAS 121333Z 18006KT M07/M12 A3025 RMK A01 T10711122  RH  067%=      5-min Rain = 0
KTAS 121334Z 18006KT M07/M12 A3025 RMK A01 T10711122  RH  067%=      5-min Rain = 0
KTAS 121335Z 18006KT M07/M12 A3025 RMK A01 T10711123  RH  067%=      5-min Rain = 0
KTAS 121336Z 18006KT M07/M12 A3025 RMK A01 T10711123  RH  066%=      5-min Rain = 0
KTAS 121337Z 18006KT M07/M12 A3025 RMK A01 T10711123  RH  067%=      5-min Rain = 0
KTAS 121338Z 18006KT M07/M12 A3025 RMK A01 T10711123  RH  067%=      5-min Rain = 0
KTAS 121339Z 18006KT M07/M12 A3025 RMK A01 T10711123  RH  067%=      5-min Rain = 0
KTAS 121340Z 19006KT M07/M12 A3025 RMK A01 T10721123  RH  067%=      5-min Rain = 0
KTAS 121341Z 19005KT M07/M12 A3025 RMK A01 T10711122  RH  067%=      5-min Rain = 0
KTAS 121342Z 18006KT M07/M12 A3025 RMK A01 T10711122  RH  067%=      5-min Rain = 0
KTAS 121343Z 18006KT M07/M12 A3025 RMK A01 T10711123  RH  067%=      5-min Rain = 0
KTAS 121344Z 18006KT M07/M12 A3025 RMK A01 T10721124  RH  066%=      5-min Rain = 0
KTAS 121345Z 18006KT M07/M13 A3025 RMK A01 T10731125  RH  066%=      5-min Rain = 0
KTAS 121346Z 18006KT M07/M12 A3025 RMK A01 T10731124  RH  067%=      5-min Rain = 0
KTAS 121347Z 18006KT M07/M12 A3025 RMK A01 T10731123  RH  067%=      5-min Rain = 0
KTAS 121348Z 18006KT M07/M12 A3025 RMK A01 T10721122  RH  068%=      5-min Rain = 0
KTAS 121349Z 18006KT M07/M12 A3025 RMK A01 T10721122  RH  068%=      5-min Rain = 0
KTAS 121350Z 18006KT M07/M12 A3025 RMK A01 T10721122  RH  068%=      5-min Rain = 0
KTAS 121351Z 18006KT M07/M12 A3025 RMK A01 T10721121  RH  068%=      5-min Rain = 0
KTAS 121352Z 18006KT M07/M12 A3025 RMK A01 T10721121  RH  068%=      5-min Rain = 0
KTAS 121353Z 18006KT M07/M12 A3025 RMK A01 T10711121  RH  068%=      5-min Rain = 0
KTAS 121354Z 18006KT M07/M12 A3025 RMK A01 T10721122  RH  067%=      5-min Rain = 0
KTAS 121355Z 18006KT M07/M12 A3025 RMK A01 T10721122  RH  067%=      5-min Rain = 0
KTAS 121356Z 18006KT M07/M12 A3025 RMK A01 T10721123  RH  067%=      5-min Rain = 0
KTAS 121357Z 18006KT M07/M12 A3025 RMK A01 T10721123  RH  067%=      5-min Rain = 0
KTAS 121358Z 18006KT M07/M12 A3025 RMK A01 T10721122  RH  067%=      5-min Rain = 0
KTAS 121359Z 18006KT M07/M12 A3025 RMK A01 T10721122  RH  068%=      5-min Rain = 0
KTAS 121400Z 18006KT M07/M12 A3025 RMK A01 T10721122  RH  068%=      5-min Rain = 0
KTAS 121401Z 19006KT M07/M12 A3025 RMK A01 T10721122  RH  068%=      5-min Rain = 0
KTAS 121402Z 19006KT M07/M12 A3025 RMK A01 T10711121  RH  068%=      5-min Rain = 0
KTAS 121403Z 19006KT M07/M12 A3025 RMK A01 T10711121  RH  067%=      5-min Rain = 0
KTAS 121404Z 19006KT M07/M12 A3025 RMK A01 T10711122  RH  067%=      5-min Rain = 0
KTAS 121405Z 19006KT M07/M12 A3025 RMK A01 T10711123  RH  067%=      5-min Rain = 0
KTAS 121406Z 19006KT M07/M12 A3025 RMK A01 T10721123  RH  067%=      5-min Rain = 0
KTAS 121407Z 19006KT M07/M12 A3025 RMK A01 T10721123  RH  067%=      5-min Rain = 0
KTAS 121408Z 19006KT M07/M12 A3025 RMK A01 T10711122  RH  067%=      5-min Rain = 0
KTAS 121409Z 19007KT M07/M12 A3025 RMK A01 T10711122  RH  067%=      5-min Rain = 0
KTAS 121410Z 19006KT M07/M12 A3025 RMK A01 T10701121  RH  067%=      5-min Rain = 0
KTAS 121411Z 19006KT M07/M12 A3025 RMK A01 T10691121  RH  067%=      5-min Rain = 0
KTAS 121412Z 19006KT M07/M12 A3025 RMK A01 T10691121  RH  067%=      5-min Rain = 0
KTAS 121413Z 20006KT M07/M12 A3026 RMK A01 T10681120  RH  066%=      5-min Rain = 0
KTAS 121414Z 20006KT M07/M12 A3026 RMK A01 T10681120  RH  066%=      5-min Rain = 0
KTAS 121415Z 20006KT M07/M12 A3026 RMK A01 T10661118  RH  067%=      5-min Rain = 0
KTAS 121416Z 20006KT M07/M12 A3026 RMK A01 T10651117  RH  067%=      5-min Rain = 0
KTAS 121417Z 20006KT M06/M11 A3026 RMK A01 T10621114  RH  067%=      5-min Rain = 0
KTAS 121418Z 20006KT M06/M11 A3026 RMK A01 T10591112  RH  066%=      5-min Rain = 0
KTAS 121419Z 20005KT M06/M11 A3026 RMK A01 T10571110  RH  066%=      5-min Rain = 0
KTAS 121420Z 19006KT M06/M11 A3026 RMK A01 T10551109  RH  065%=      5-min Rain = 0
KTAS 121421Z 19006KT M05/M11 A3026 RMK A01 T10531108  RH  065%=      5-min Rain = 0
KTAS 121422Z 19005KT M05/M11 A3026 RMK A01 T10511108  RH  065%=      5-min Rain = 0
KTAS 121423Z 19006KT M05/M11 A3026 RMK A01 T10501107  RH  064%=      5-min Rain = 0
KTAS 121424Z 19006KT M05/M11 A3026 RMK A01 T10491107  RH  064%=      5-min Rain = 0
KTAS 121425Z 19007KT M05/M11 A3026 RMK A01 T10481106  RH  063%=      5-min Rain = 0
KTAS 121426Z 19006KT M05/M11 A3026 RMK A01 T10461106  RH  063%=      5-min Rain = 0
KTAS 121427Z 19006KT M05/M11 A3026 RMK A01 T10451105  RH  063%=      5-min Rain = 0
KTAS 121428Z 18006KT M04/M10 A3025 RMK A01 T10431104  RH  062%=      5-min Rain = 0
KTAS 121429Z 18007KT M04/M10 A3025 RMK A01 T10421103  RH  062%=      5-min Rain = 0
KTAS 121430Z 18006KT M04/M10 A3025 RMK A01 T10401103  RH  062%=      5-min Rain = 0
KTAS 121431Z 18007KT M04/M10 A3025 RMK A01 T10391103  RH  061%=      5-min Rain = 0
KTAS 121432Z 18006KT M04/M10 A3025 RMK A01 T10371103  RH  061%=      5-min Rain = 0
KTAS 121433Z 18006KT M04/M10 A3025 RMK A01 T10361103  RH  060%=      5-min Rain = 0
KTAS 121434Z 18006KT M04/M10 A3025 RMK A01 T10361103  RH  060%=      5-min Rain = 0
KTAS 121435Z 18006KT M04/M10 A3025 RMK A01 T10361104  RH  059%=      5-min Rain = 0
KTAS 121436Z 18006KT M04/M10 A3025 RMK A01 T10351103  RH  059%=      5-min Rain = 0
KTAS 121437Z 18006KT M03/M10 A3025 RMK A01 T10341103  RH  059%=      5-min Rain = 0
KTAS 121438Z 18006KT M03/M10 A3025 RMK A01 T10331103  RH  059%=      5-min Rain = 0
KTAS 121439Z 18006KT M03/M10 A3025 RMK A01 T10331103  RH  058%=      5-min Rain = 0
KTAS 121440Z 18005KT M03/M10 A3025 RMK A01 T10321102  RH  058%=      5-min Rain = 0
KTAS 121441Z 18006KT M03/M10 A3025 RMK A01 T10301101  RH  058%=      5-min Rain = 0
KTAS 121442Z 18006KT M03/M10 A3025 RMK A01 T10291101  RH  058%=      5-min Rain = 0
KTAS 121443Z 17006KT M03/M10 A3025 RMK A01 T10281101  RH  057%=      5-min Rain = 0
KTAS 121444Z 17008KT M03/M10 A3025 RMK A01 T10281102  RH  057%=      5-min Rain = 0
KTAS 121445Z 17007KT M03/M10 A3025 RMK A01 T10271102  RH  056%=      5-min Rain = 0
KTAS 121446Z 18008KT M03/M10 A3025 RMK A01 T10261102  RH  056%=      5-min Rain = 0
KTAS 121447Z 17008KT M03/M10 A3025 RMK A01 T10261102  RH  056%=      5-min Rain = 0
KTAS 121448Z 18008KT M03/M10 A3025 RMK A01 T10251102  RH  056%=      5-min Rain = 0
KTAS 121449Z 18008KT M03/M10 A3025 RMK A01 T10251102  RH  055%=      5-min Rain = 0
KTAS 121450Z 18006KT M02/M10 A3025 RMK A01 T10241101  RH  056%=      5-min Rain = 0
KTAS 121451Z 18007KT M02/M10 A3025 RMK A01 T10231101  RH  055%=      5-min Rain = 0
KTAS 121452Z 18008KT M02/M10 A3025 RMK A01 T10231102  RH  055%=      5-min Rain = 0
KTAS 121453Z 18008KT M02/M10 A3025 RMK A01 T10221102  RH  055%=      5-min Rain = 0
KTAS 121454Z 17008KT M02/M10 A3025 RMK A01 T10221102  RH  054%=      5-min Rain = 0
KTAS 121455Z 18008KT M02/M10 A3025 RMK A01 T10211101  RH  054%=      5-min Rain = 0
KTAS 121456Z 17008KT M02/M10 A3025 RMK A01 T10201101  RH  054%=      5-min Rain = 0
KTAS 121457Z 17008KT M02/M10 A3025 RMK A01 T10201102  RH  054%=      5-min Rain = 0
KTAS 121458Z 18008KT M02/M10 A3025 RMK A01 T10201102  RH  054%=      5-min Rain = 0
KTAS 121459Z 18009KT M02/M10 A3025 RMK A01 T10201101  RH  054%=      5-min Rain = 0
KTAS 121500Z 18010KT M02/M10 A3025 RMK A01 T10191101  RH  053%=      5-min Rain = 0
KTAS 121501Z 18009KT M02/M10 A3025 RMK A01 T10191102  RH  053%=      5-min Rain = 0
KTAS 121502Z 18009KT M02/M10 A3025 RMK A01 T10191102  RH  053%=      5-min Rain = 0
KTAS 121503Z 17010KT M02/M10 A3025 RMK A01 T10191102  RH  053%=      5-min Rain = 0
KTAS 121504Z 18008KT M02/M10 A3025 RMK A01 T10191102  RH  053%=      5-min Rain = 0
KTAS 121505Z 18009KT M02/M10 A3025 RMK A01 T10181101  RH  053%=      5-min Rain = 0
KTAS 121506Z 18009KT M02/M10 A3025 RMK A01 T10181102  RH  053%=      5-min Rain = 0
KTAS 121507Z 18010KT M02/M10 A3025 RMK A01 T10181103  RH  053%=      5-min Rain = 0
KTAS 121508Z 18009KT M02/M10 A3026 RMK A01 T10181102  RH  053%=      5-min Rain = 0
KTAS 121509Z 17009KT M02/M10 A3026 RMK A01 T10171101  RH  053%=      5-min Rain = 0
KTAS 121510Z 17009KT M02/M10 A3026 RMK A01 T10171102  RH  052%=      5-min Rain = 0
KTAS 121511Z 18006KT M02/M10 A3026 RMK A01 T10171101  RH  053%=      5-min Rain = 0
KTAS 121512Z 17008KT M02/M10 A3026 RMK A01 T10151099  RH  053%=      5-min Rain = 0
KTAS 121513Z 17008KT M01/M10 A3026 RMK A01 T10131099  RH  052%=      5-min Rain = 0
KTAS 121514Z 17008KT M01/M10 A3026 RMK A01 T10131100  RH  052%=      5-min Rain = 0
KTAS 121515Z 16007KT M01/M10 A3026 RMK A01 T10131100  RH  051%=      5-min Rain = 0
KTAS 121516Z 17008KT M01/M10 A3026 RMK A01 T10131100  RH  051%=      5-min Rain = 0
KTAS 121517Z 18008KT M01/M10 A3026 RMK A01 T10131100  RH  051%=      5-min Rain = 0
KTAS 121518Z 18009KT M01/M10 A3026 RMK A01 T10131101  RH  051%=      5-min Rain = 0
KTAS 121519Z 18009KT M01/M10 A3026 RMK A01 T10141102  RH  051%=      5-min Rain = 0
KTAS 121520Z 17007KT M01/M10 A3026 RMK A01 T10131101  RH  051%=      5-min Rain = 0
KTAS 121521Z 17006KT M01/M10 A3026 RMK A01 T10111098  RH  051%=      5-min Rain = 0
KTAS 121522Z 17007KT M01/M10 A3026 RMK A01 T10081098  RH  051%=      5-min Rain = 0
KTAS 121523Z 17006KT M01/M10 A3026 RMK A01 T10071098  RH  050%=      5-min Rain = 0
KTAS 121524Z 16008KT M01/M10 A3026 RMK A01 T10071100  RH  049%=      5-min Rain = 0
KTAS 121525Z 16009KT M01/M10 A3026 RMK A01 T10091101  RH  050%=      5-min Rain = 0
KTAS 121526Z 16009KT M01/M10 A3026 RMK A01 T10091101  RH  050%=      5-min Rain = 0
KTAS 121527Z 17009KT M01/M10 A3026 RMK A01 T10091101  RH  050%=      5-min Rain = 0
KTAS 121528Z 17007KT M01/M10 A3026 RMK A01 T10091100  RH  050%=      5-min Rain = 0
KTAS 121529Z 16009KT M01/M10 A3026 RMK A01 T10081099  RH  050%=      5-min Rain = 0
KTAS 121530Z 17009KT M01/M10 A3026 RMK A01 T10081099  RH  050%=      5-min Rain = 0
KTAS 121531Z 17008KT M01/M10 A3026 RMK A01 T10071099  RH  050%=      5-min Rain = 0
KTAS 121532Z 16007KT M01/M10 A3026 RMK A01 T10061098  RH  050%=      5-min Rain = 0
KTAS 121533Z 17008KT M00/M10 A3026 RMK A01 T10041097  RH  049%=      5-min Rain = 0
KTAS 121534Z 16008KT M00/M10 A3026 RMK A01 T10041097  RH  049%=      5-min Rain = 0
KTAS 121535Z 17007KT M00/M10 A3026 RMK A01 T10031097  RH  049%=      5-min Rain = 0
KTAS 121536Z 16008KT 00/10 A3026 RMK A01 T00-00-95  RH  049%=      5-min Rain = 0
KTAS 121537Z 15007KT 00/M10 A3026 RMK A01 T00011095  RH  048%=      5-min Rain = 0
KTAS 121538Z 16009KT 00/M10 A3026 RMK A01 T00031095  RH  048%=      5-min Rain = 0
KTAS 121539Z 16008KT 00/M10 A3026 RMK A01 T00031097  RH  047%=      5-min Rain = 0
KTAS 121540Z 17007KT 00/M10 A3026 RMK A01 T00021097  RH  047%=      5-min Rain = 0
KTAS 121541Z 16006KT 00/M10 A3026 RMK A01 T00041095  RH  047%=      5-min Rain = 0
KTAS 121542Z 16006KT 01/M10 A3026 RMK A01 T00051095  RH  047%=      5-min Rain = 0
KTAS 121543Z 16007KT 01/M10 A3026 RMK A01 T00071096  RH  046%=      5-min Rain = 0
KTAS 121544Z 16008KT 01/M10 A3026 RMK A01 T00071096  RH  046%=      5-min Rain = 0
KTAS 121545Z 16008KT 01/M10 A3026 RMK A01 T00071097  RH  046%=      5-min Rain = 0
KTAS 121546Z 16010KT 01/M10 A3026 RMK A01 T00071098  RH  045%=      5-min Rain = 0
KTAS 121547Z 17009KT 01/M10 A3026 RMK A01 T00061099  RH  045%=      5-min Rain = 0
KTAS 121548Z 16008KT 01/M10 A3026 RMK A01 T00051099  RH  046%=      5-min Rain = 0
KTAS 121549Z 17008KT 01/M10 A3026 RMK A01 T00051098  RH  046%=      5-min Rain = 0
KTAS 121550Z 16008KT 01/M10 A3026 RMK A01 T00071097  RH  046%=      5-min Rain = 0
KTAS 121551Z 15009KT 01/M10 A3026 RMK A01 T00071099  RH  045%=      5-min Rain = 0
KTAS 121552Z 17008KT 01/M10 A3026 RMK A01 T00071100  RH  045%=      5-min Rain = 0
KTAS 121553Z 18009KT 01/M10 A3027 RMK A01 T00081099  RH  045%=      5-min Rain = 0
KTAS 121554Z 17007KT 01/M10 A3027 RMK A01 T00101098  RH  045%=      5-min Rain = 0
KTAS 121555Z 17007KT 01/M10 A3027 RMK A01 T00121097  RH  044%=      5-min Rain = 0
KTAS 121556Z 16006KT 01/M10 A3027 RMK A01 T00131097  RH  044%=      5-min Rain = 0
KTAS 121557Z 17007KT 01/M10 A3027 RMK A01 T00131099  RH  043%=      5-min Rain = 0
KTAS 121558Z 16006KT 01/M10 A3027 RMK A01 T00121099  RH  043%=      5-min Rain = 0
KTAS 121559Z 18007KT 01/M10 A3027 RMK A01 T00131098  RH  043%=      5-min Rain = 0
KTAS 121600Z 16007KT 01/M10 A3027 RMK A01 T00141098  RH  043%=      5-min Rain = 0
KTAS 121601Z 16008KT 02/M10 A3027 RMK A01 T00151098  RH  043%=      5-min Rain = 0
KTAS 121602Z 16007KT 02/M10 A3027 RMK A01 T00151100  RH  042%=      5-min Rain = 0
KTAS 121603Z 16008KT 01/M10 A3027 RMK A01 T00141101  RH  042%=      5-min Rain = 0
KTAS 121604Z 15007KT 01/M10 A3027 RMK A01 T00131101  RH  042%=      5-min Rain = 0
KTAS 121605Z 15008KT 02/M10 A3027 RMK A01 T00151100  RH  042%=      5-min Rain = 0
KTAS 121606Z 15008KT 02/M10 A3027 RMK A01 T00151102  RH  041%=      5-min Rain = 0
KTAS 121607Z 15006KT 01/M10 A3027 RMK A01 T00141102  RH  042%=      5-min Rain = 0
KTAS 121608Z 16009KT 01/M10 A3027 RMK A01 T00141102  RH  042%=      5-min Rain = 0
KTAS 121609Z 16009KT 01/M10 A3027 RMK A01 T00121103  RH  042%=      5-min Rain = 0
KTAS 121610Z 14008KT 01/M10 A3027 RMK A01 T00121102  RH  042%=      5-min Rain = 0
KTAS 121611Z 15009KT 01/M10 A3027 RMK A01 T00141100  RH  042%=      5-min Rain = 0
KTAS 121612Z 15008KT 02/M10 A3027 RMK A01 T00161100  RH  042%=      5-min Rain = 0
KTAS 121613Z 15007KT 02/M10 A3027 RMK A01 T00161100  RH  042%=      5-min Rain = 0
KTAS 121614Z 16007KT 02/M10 A3027 RMK A01 T00171099  RH  042%=      5-min Rain = 0
KTAS 121615Z 16008KT 02/M10 A3026 RMK A01 T00181099  RH  042%=      5-min Rain = 0
KTAS 121616Z 16007KT 02/M10 A3026 RMK A01 T00171100  RH  042%=      5-min Rain = 0
KTAS 121617Z 16006KT 02/M10 A3026 RMK A01 T00171099  RH  042%=      5-min Rain = 0
KTAS 121618Z 16007KT 02/M10 A3026 RMK A01 T00181099  RH  042%=      5-min Rain = 0
KTAS 121619Z 15005KT 02/M10 A3026 RMK A01 T00171099  RH  042%=      5-min Rain = 0
KTAS 121620Z 17007KT 02/M10 A3026 RMK A01 T00191097  RH  042%=      5-min Rain = 0
KTAS 121621Z 17008KT 02/M10 A3026 RMK A01 T00221096  RH  041%=      5-min Rain = 0
KTAS 121622Z 16006KT 02/M10 A3026 RMK A01 T00221098  RH  041%=      5-min Rain = 0
KTAS 121623Z 14007KT 02/M10 A3026 RMK A01 T00241095  RH  041%=      5-min Rain = 0
KTAS 121624Z 14008KT 03/M10 A3026 RMK A01 T00251098  RH  040%=      5-min Rain = 0
KTAS 121625Z 14008KT 02/M10 A3026 RMK A01 T00231100  RH  040%=      5-min Rain = 0
KTAS 121626Z 15008KT 02/M10 A3026 RMK A01 T00221100  RH  040%=      5-min Rain = 0
KTAS 121627Z 15007KT 02/M10 A3026 RMK A01 T00231099  RH  040%=      5-min Rain = 0
KTAS 121628Z 15006KT 03/M10 A3026 RMK A01 T00251097  RH  040%=      5-min Rain = 0
KTAS 121629Z 17007KT 03/M10 A3026 RMK A01 T00271098  RH  039%=      5-min Rain = 0
KTAS 121630Z 16008KT 03/M10 A3026 RMK A01 T00261099  RH  039%=      5-min Rain = 0
KTAS 121631Z 14007KT 03/M10 A3026 RMK A01 T00261098  RH  039%=      5-min Rain = 0
KTAS 121632Z 16007KT 03/M10 A3026 RMK A01 T00261099  RH  039%=      5-min Rain = 0
KTAS 121633Z 15007KT 03/M10 A3026 RMK A01 T00271098  RH  039%=      5-min Rain = 0
KTAS 121634Z 16007KT 03/M10 A3026 RMK A01 T00281098  RH  039%=      5-min Rain = 0
KTAS 121635Z 17008KT 03/M10 A3026 RMK A01 T00291099  RH  038%=      5-min Rain = 0
KTAS 121636Z 17007KT 03/M10 A3026 RMK A01 T00271100  RH  039%=      5-min Rain = 0
KTAS 121637Z 16006KT 03/M10 A3026 RMK A01 T00281098  RH  039%=      5-min Rain = 0
KTAS 121638Z 17007KT 03/M10 A3026 RMK A01 T00301099  RH  038%=      5-min Rain = 0
KTAS 121639Z 17007KT 03/M10 A3026 RMK A01 T00281101  RH  038%=      5-min Rain = 0
KTAS 121640Z 17006KT 03/M10 A3026 RMK A01 T00281099  RH  038%=      5-min Rain = 0
KTAS 121641Z 14006KT 03/M10 A3026 RMK A01 T00291099  RH  039%=      5-min Rain = 0
KTAS 121642Z 15009KT 03/M10 A3026 RMK A01 T00301098  RH  038%=      5-min Rain = 0
KTAS 121643Z 15008KT 03/M10 A3026 RMK A01 T00311099  RH  038%=      5-min Rain = 0
KTAS 121644Z 15006KT 03/M10 A3026 RMK A01 T00311098  RH  038%=      5-min Rain = 0
KTAS 121645Z 15007KT 03/M10 A3026 RMK A01 T00341096  RH  038%=      5-min Rain = 0
KTAS 121646Z 15006KT 04/M10 A3026 RMK A01 T00361098  RH  037%=      5-min Rain = 0
KTAS 121647Z 16007KT 04/M10 A3026 RMK A01 T00351097  RH  037%=      5-min Rain = 0
KTAS 121648Z 16008KT 04/M10 A3026 RMK A01 T00351098  RH  037%=      5-min Rain = 0
KTAS 121649Z 15008KT 03/M10 A3026 RMK A01 T00331099  RH  037%=      5-min Rain = 0
KTAS 121650Z 16008KT 03/M10 A3026 RMK A01 T00321098  RH  038%=      5-min Rain = 0
KTAS 121651Z 16010KT 03/M10 A3026 RMK A01 T00341098  RH  037%=      5-min Rain = 0
KTAS 121652Z 18008KT 04/M10 A3026 RMK A01 T00361098  RH  037%=      5-min Rain = 0
KTAS 121653Z 18008KT 04/M10 A3026 RMK A01 T00361099  RH  037%=      5-min Rain = 0
KTAS 121654Z 16008KT 04/M10 A3025 RMK A01 T00381097  RH  037%=      5-min Rain = 0
KTAS 121655Z 16008KT 04/M10 A3025 RMK A01 T00401097  RH  036%=      5-min Rain = 0
KTAS 121656Z 17009KT 04/M10 A3025 RMK A01 T00411098  RH  035%=      5-min Rain = 0
KTAS 121657Z 16007KT 04/M10 A3025 RMK A01 T00401099  RH  036%=      5-min Rain = 0
KTAS 121658Z 17007KT 04/M10 A3025 RMK A01 T00401097  RH  036%=      5-min Rain = 0
KTAS 121659Z 16009KT 04/M10 A3025 RMK A01 T00411097  RH  036%=      5-min Rain = 0
KTAS 121700Z 16008KT 04/M10 A3025 RMK A01 T00411100  RH  035%=      5-min Rain = 0
KTAS 121701Z 16006KT 04/M10 A3025 RMK A01 T00391100  RH  035%=      5-min Rain = 0
KTAS 121702Z 16007KT 04/M10 A3025 RMK A01 T00411098  RH  036%=      5-min Rain = 0
KTAS 121703Z 17007KT 04/M10 A3025 RMK A01 T00421098  RH  035%=      5-min Rain = 0
KTAS 121704Z 15008KT 04/M10 A3025 RMK A01 T00441097  RH  035%=      5-min Rain = 0
KTAS 121705Z 15009KT 04/M10 A3025 RMK A01 T00441100  RH  034%=      5-min Rain = 0
KTAS 121706Z 15012KT 04/M10 A3025 RMK A01 T00411102  RH  035%=      5-min Rain = 0
KTAS 121707Z 15010KT 04/M10 A3025 RMK A01 T00401103  RH  035%=      5-min Rain = 0
KTAS 121708Z 16008KT 04/M10 A3025 RMK A01 T00401101  RH  035%=      5-min Rain = 0
KTAS 121709Z 16008KT 04/M10 A3025 RMK A01 T00411101  RH  035%=      5-min Rain = 0
KTAS 121710Z 17010KT 04/M10 A3025 RMK A01 T00401102  RH  035%=      5-min Rain = 0
KTAS 121711Z 18009KT 04/M10 A3025 RMK A01 T00401101  RH  035%=      5-min Rain = 0
KTAS 121712Z 17008KT 04/M10 A3025 RMK A01 T00421100  RH  035%=      5-min Rain = 0
KTAS 121713Z 15008KT 04/M10 A3025 RMK A01 T00421101  RH  035%=      5-min Rain = 0
KTAS 121714Z 18009KT 04/M10 A3025 RMK A01 T00411100  RH  035%=      5-min Rain = 0
KTAS 121715Z 18007KT 04/M10 A3024 RMK A01 T00411101  RH  035%=      5-min Rain = 0
KTAS 121716Z 15009KT 04/M10 A3024 RMK A01 T00411101  RH  035%=      5-min Rain = 0
KTAS 121717Z 14009KT 04/M10 A3024 RMK A01 T00421100  RH  035%=      5-min Rain = 0
KTAS 121718Z 16008KT 04/M10 A3024 RMK A01 T00421101  RH  034%=      5-min Rain = 0
KTAS 121719Z 18010KT 04/M10 A3024 RMK A01 T00421101  RH  034%=      5-min Rain = 0
KTAS 121720Z 18009KT 04/M10 A3024 RMK A01 T00431102  RH  034%=      5-min Rain = 0
KTAS 121721Z 18007KT 04/M10 A3024 RMK A01 T00431101  RH  034%=      5-min Rain = 0
KTAS 121722Z 17009KT 05/M10 A3024 RMK A01 T00451099  RH  034%=      5-min Rain = 0
KTAS 121723Z 18010KT 05/M10 A3024 RMK A01 T00491101  RH  033%=      5-min Rain = 0
KTAS 121724Z 17008KT 05/M10 A3024 RMK A01 T00471104  RH  033%=      5-min Rain = 0
KTAS 121725Z 16010KT 05/M10 A3024 RMK A01 T00471104  RH  033%=      5-min Rain = 0
KTAS 121726Z 16010KT 05/M10 A3024 RMK A01 T00461104  RH  033%=      5-min Rain = 0
KTAS 121727Z 17010KT 05/M10 A3024 RMK A01 T00451103  RH  033%=      5-min Rain = 0
KTAS 121728Z 17010KT 05/M10 A3024 RMK A01 T00471102  RH  033%=      5-min Rain = 0
KTAS 121729Z 18011KT 05/M10 A3024 RMK A01 T00491104  RH  032%=      5-min Rain = 0
KTAS 121730Z 17011KT 05/M11 A3024 RMK A01 T00491106  RH  032%=      5-min Rain = 0
KTAS 121731Z 17013KT 05/M11 A3024 RMK A01 T00471106  RH  032%=      5-min Rain = 0
KTAS 121732Z 17010KT 05/M11 A3024 RMK A01 T00471105  RH  032%=      5-min Rain = 0
KTAS 121733Z 17008KT 05/M10 A3024 RMK A01 T00501104  RH  032%=      5-min Rain = 0
KTAS 121734Z 17013KT 05/M11 A3024 RMK A01 T00521106  RH  031%=      5-min Rain = 0
KTAS 121735Z 17012KT 05/M11 A3023 RMK A01 T00521107  RH  031%=      5-min Rain = 0
KTAS 121736Z 17012KT 05/M11 A3023 RMK A01 T00541106  RH  031%=      5-min Rain = 0
KTAS 121737Z 16012KT 06/M11 A3023 RMK A01 T00551106  RH  030%=      5-min Rain = 0
KTAS 121738Z 16013KT 05/M11 A3023 RMK A01 T00541109  RH  030%=      5-min Rain = 0
KTAS 121739Z 16013KT 05/M11 A3023 RMK A01 T00521111  RH  030%=      5-min Rain = 0
KTAS 121740Z 16008KT 05/M11 A3023 RMK A01 T00511109  RH  030%=      5-min Rain = 0
KTAS 121741Z 16011KT 05/M11 A3023 RMK A01 T00531108  RH  030%=      5-min Rain = 0
KTAS 121742Z 18010KT 05/M11 A3023 RMK A01 T00531109  RH  030%=      5-min Rain = 0
KTAS 121743Z 17011KT 05/M11 A3023 RMK A01 T00541107  RH  030%=      5-min Rain = 0
KTAS 121744Z 17011KT 05/M11 A3023 RMK A01 T00541111  RH  029%=      5-min Rain = 0
KTAS 121745Z 18013KT 05/M11 A3023 RMK A01 T00541112  RH  029%=      5-min Rain = 0
KTAS 121746Z 18011KT 05/M11 A3023 RMK A01 T00541111  RH  029%=      5-min Rain = 0
KTAS 121747Z 16012KT 06/M11 A3023 RMK A01 T00551112  RH  029%=      5-min Rain = 0
KTAS 121748Z 16013KT 06/M11 A3023 RMK A01 T00561112  RH  029%=      5-min Rain = 0
KTAS 121749Z 17012KT 06/M11 A3023 RMK A01 T00561113  RH  028%=      5-min Rain = 0
KTAS 121750Z 18013KT 05/M12 A3022 RMK A01 T00541115  RH  028%=      5-min Rain = 0
KTAS 121751Z 18011KT 05/M11 A3022 RMK A01 T00541112  RH  029%=      5-min Rain = 0
KTAS 121752Z 17012KT 06/M11 A3022 RMK A01 T00551112  RH  029%=      5-min Rain = 0
KTAS 121753Z 16011KT 05/M11 A3022 RMK A01 T00531113  RH  029%=      5-min Rain = 0
KTAS 121754Z 17013KT 06/M11 A3022 RMK A01 T00581112  RH  028%=      5-min Rain = 0
KTAS 121755Z 17012KT 06/M11 A3022 RMK A01 T00581111  RH  028%=      5-min Rain = 0
KTAS 121756Z 17011KT 06/M11 A3022 RMK A01 T00591110  RH  028%=      5-min Rain = 0
KTAS 121757Z 16011G18KT 06/M11 A3022 RMK A01 T00631107  RH  029%=      5-min Rain = 0
KTAS 121758Z 16013KT 07/M11 A3021 RMK A01 T00651111  RH  027%=      5-min Rain = 0
KTAS 121759Z 16012KT 06/M11 A3021 RMK A01 T00621112  RH  027%=      5-min Rain = 0
KTAS 121800Z 17014KT 06/M11 A3021 RMK A01 T00601112  RH  028%=      5-min Rain = 0
KTAS 121801Z 17014KT 06/M11 A3021 RMK A01 T00571112  RH  028%=      5-min Rain = 0
KTAS 121802Z 16011KT 06/M11 A3021 RMK A01 T00551112  RH  029%=      5-min Rain = 0
KTAS 121803Z 16014KT 06/M11 A3021 RMK A01 T00561110  RH  029%=      5-min Rain = 0
KTAS 121804Z 16013KT 06/M11 A3021 RMK A01 T00561110  RH  029%=      5-min Rain = 0
KTAS 121805Z 16013KT 06/M11 A302 RMK A01 T00551110  RH  029%=      5-min Rain = 0
KTAS 121806Z 17011KT 05/M11 A302 RMK A01 T00521111  RH  030%=      5-min Rain = 0
KTAS 121807Z 16011KT 05/M11 A302 RMK A01 T00511110  RH  030%=      5-min Rain = 0
KTAS 121808Z 16013KT 05/M11 A302 RMK A01 T00541110  RH  029%=      5-min Rain = 0
KTAS 121809Z 17013KT 06/M11 A302 RMK A01 T00581113  RH  028%=      5-min Rain = 0
KTAS 121810Z 16014KT 06/M12 A302 RMK A01 T00581117  RH  027%=      5-min Rain = 0
KTAS 121811Z 17014KT 06/M12 A302 RMK A01 T00581117  RH  027%=      5-min Rain = 0
KTAS 121812Z 17013KT 06/M12 A302 RMK A01 T00601116  RH  027%=      5-min Rain = 0
KTAS 121813Z 16015KT 06/M12 A302 RMK A01 T00641115  RH  027%=      5-min Rain = 0
KTAS 121814Z 17013KT 06/M11 A302 RMK A01 T00641114  RH  027%=      5-min Rain = 0
KTAS 121815Z 18013KT 06/M12 A302 RMK A01 T00641115  RH  027%=      5-min Rain = 0
KTAS 121816Z 17012KT 06/M12 A302 RMK A01 T00591118  RH  027%=      5-min Rain = 0
KTAS 121817Z 17015KT 06/M12 A302 RMK A01 T00581118  RH  027%=      5-min Rain = 0
KTAS 121818Z 17014KT 06/M12 A302 RMK A01 T00571120  RH  027%=      5-min Rain = 0
KTAS 121819Z 16013KT 06/M12 A302 RMK A01 T00571119  RH  027%=      5-min Rain = 0
KTAS 121820Z 18013KT 06/M12 A302 RMK A01 T00581118  RH  027%=      5-min Rain = 0
KTAS 121821Z 16013KT 06/M12 A302 RMK A01 T00601116  RH  027%=      5-min Rain = 0
KTAS 121822Z 16012KT 06/M12 A302 RMK A01 T00641115  RH  027%=      5-min Rain = 0
KTAS 121823Z 16010KT 07/M11 A302 RMK A01 T00661114  RH  026%=      5-min Rain = 0
KTAS 121824Z 16010KT 07/M11 A3019 RMK A01 T00711112  RH  026%=      5-min Rain = 0
KTAS 121825Z 17009KT 07/M11 A3019 RMK A01 T00721114  RH  025%=      5-min Rain = 0
KTAS 121826Z 18011KT 07/M12 A3019 RMK A01 T00701115  RH  025%=      5-min Rain = 0
KTAS 121827Z 18012KT 07/M12 A3019 RMK A01 T00681117  RH  025%=      5-min Rain = 0
KTAS 121828Z 16012KT 07/M12 A3019 RMK A01 T00671116  RH  026%=      5-min Rain = 0
KTAS 121829Z 16013KT 07/M12 A3019 RMK A01 T00681117  RH  025%=      5-min Rain = 0
KTAS 121830Z 16013KT 07/M12 A3019 RMK A01 T00671116  RH  026%=      5-min Rain = 0
KTAS 121831Z 17014KT 07/M12 A3019 RMK A01 T00681117  RH  025%=      5-min Rain = 0
KTAS 121832Z 17013KT 07/M12 A3019 RMK A01 T00671118  RH  025%=      5-min Rain = 0
KTAS 121833Z 17014KT 07/M12 A3019 RMK A01 T00671118  RH  025%=      5-min Rain = 0
KTAS 121834Z 17012KT 07/M12 A3019 RMK A01 T00651117  RH  026%=      5-min Rain = 0
KTAS 121835Z 18011KT 07/M12 A3019 RMK A01 T00651115  RH  026%=      5-min Rain = 0
KTAS 121836Z 17010KT 07/M12 A3019 RMK A01 T00651116  RH  026%=      5-min Rain = 0
KTAS 121837Z 16012KT 07/M11 A3019 RMK A01 T00691114  RH  026%=      5-min Rain = 0
KTAS 121838Z 17010KT 07/M12 A3019 RMK A01 T00691115  RH  026%=      5-min Rain = 0
KTAS 121839Z 17010G16KT 07/M11 A3019 RMK A01 T00711113  RH  026%=      5-min Rain = 0
KTAS 121840Z 18013KT 07/M12 A3019 RMK A01 T00731116  RH  025%=      5-min Rain = 0
KTAS 121841Z 17014KT 07/M12 A3019 RMK A01 T00721118  RH  024%=      5-min Rain = 0
KTAS 121842Z 16012KT 07/M12 A3019 RMK A01 T00711118  RH  025%=      5-min Rain = 0
KTAS 121843Z 15012KT 07/M12 A3018 RMK A01 T00701116  RH  025%=      5-min Rain = 0
KTAS 121844Z 15010KT 07/M12 A3018 RMK A01 T00701115  RH  025%=      5-min Rain = 0
KTAS 121845Z 16012KT 07/M11 A3018 RMK A01 T00731114  RH  025%=      5-min Rain = 0
KTAS 121846Z 18013KT 08/M12 A3018 RMK A01 T00751116  RH  024%=      5-min Rain = 0
KTAS 121847Z 16012KT 07/M12 A3017 RMK A01 T00731120  RH  024%=      5-min Rain = 0
KTAS 121848Z 16010KT 07/M12 A3018 RMK A01 T00741119  RH  024%=      5-min Rain = 0
KTAS 121849Z 17011KT 08/M12 A3018 RMK A01 T00761118  RH  024%=      5-min Rain = 0
KTAS 121850Z 16012KT 08/M12 A3018 RMK A01 T00771120  RH  023%=      5-min Rain = 0
KTAS 121851Z 17012KT 08/M13 A3018 RMK A01 T00771125  RH  022%=      5-min Rain = 0
KTAS 121852Z 16015KT 08/M13 A3017 RMK A01 T00771126  RH  022%=      5-min Rain = 0
KTAS 121853Z 17013KT 07/M13 A3017 RMK A01 T00741126  RH  023%=      5-min Rain = 0
KTAS 121854Z 17014KT 07/M13 A3017 RMK A01 T00741128  RH  022%=      5-min Rain = 0
KTAS 121855Z 16013KT 07/M13 A3017 RMK A01 T00731127  RH  023%=      5-min Rain = 0
KTAS 121856Z 16013KT 08/M12 A3017 RMK A01 T00761123  RH  023%=      5-min Rain = 0
KTAS 121857Z 16011KT 08/M12 A3017 RMK A01 T00771122  RH  023%=      5-min Rain = 0
KTAS 121858Z 16012KT 08/M12 A3017 RMK A01 T00791122  RH  023%=      5-min Rain = 0
KTAS 121859Z 16009KT 08/M12 A3017 RMK A01 T00811121  RH  022%=      5-min Rain = 0
KTAS 121900Z 16008KT 08/M12 A3017 RMK A01 T00831120  RH  022%=      5-min Rain = 0
KTAS 121901Z 16013KT 08/M12 A3017 RMK A01 T00831122  RH  022%=      5-min Rain = 0
KTAS 121902Z 16013KT 08/M12 A3017 RMK A01 T00801123  RH  022%=      5-min Rain = 0
KTAS 121903Z 17014KT 08/M13 A3017 RMK A01 T00771125  RH  022%=      5-min Rain = 0
KTAS 121904Z 16012KT 07/M12 A3017 RMK A01 T00741124  RH  023%=      5-min Rain = 0
KTAS 121905Z 16015KT 08/M12 A3016 RMK A01 T00771121  RH  023%=      5-min Rain = 0
KTAS 121906Z 17014G20KT 08/M12 A3016 RMK A01 T00791122  RH  023%=      5-min Rain = 0
KTAS 121907Z 17015KT 08/M12 A3016 RMK A01 T00781121  RH  023%=      5-min Rain = 0
KTAS 121908Z 17011KT 08/M12 A3016 RMK A01 T00771122  RH  023%=      5-min Rain = 0
KTAS 121909Z 17016KT 08/M12 A3016 RMK A01 T00771122  RH  023%=      5-min Rain = 0
KTAS 121910Z 17012KT 08/M12 A3016 RMK A01 T00771121  RH  023%=      5-min Rain = 0
KTAS 121911Z 16011KT 08/M12 A3016 RMK A01 T00781121  RH  023%=      5-min Rain = 0
KTAS 121912Z 16012KT 08/M12 A3016 RMK A01 T00801119  RH  023%=      5-min Rain = 0
KTAS 121913Z 18014KT 08/M12 A3016 RMK A01 T00821119  RH  023%=      5-min Rain = 0
KTAS 121914Z 19014KT 08/M12 A3016 RMK A01 T00811120  RH  023%=      5-min Rain = 0
KTAS 121915Z 18011KT 08/M12 A3017 RMK A01 T00781121  RH  023%=      5-min Rain = 0
KTAS 121916Z 17011KT 08/M12 A3017 RMK A01 T00781119  RH  023%=      5-min Rain = 0
KTAS 121917Z 18011KT 08/M12 A3017 RMK A01 T00811118  RH  023%=      5-min Rain = 0
KTAS 121918Z 18011KT 08/M12 A3016 RMK A01 T00811120  RH  023%=      5-min Rain = 0
KTAS 121919Z 18010KT 08/M12 A3016 RMK A01 T00811118  RH  023%=      5-min Rain = 0
KTAS 121920Z 18012KT 09/M12 A3017 RMK A01 T00861117  RH  022%=      5-min Rain = 0
KTAS 121921Z 18012KT 09/M12 A3017 RMK A01 T00851120  RH  022%=      5-min Rain = 0
KTAS 121922Z 19012KT 08/M12 A3016 RMK A01 T00841119  RH  022%=      5-min Rain = 0
KTAS 121923Z 18014KT 08/M12 A3016 RMK A01 T00841120  RH  022%=      5-min Rain = 0
KTAS 121924Z 18014KT 08/M12 A3016 RMK A01 T00811120  RH  023%=      5-min Rain = 0
KTAS 121925Z 17014KT 08/M12 A3016 RMK A01 T00781120  RH  023%=      5-min Rain = 0
KTAS 121926Z 18009KT 08/M12 A3015 RMK A01 T00781119  RH  023%=      5-min Rain = 0
KTAS 121927Z 18013KT 08/M12 A3015 RMK A01 T00831117  RH  023%=      5-min Rain = 0
KTAS 121928Z 18014KT 08/M12 A3015 RMK A01 T00841119  RH  022%=      5-min Rain = 0
KTAS 121929Z 17014KT 08/M12 A3015 RMK A01 T00821119  RH  023%=      5-min Rain = 0
KTAS 121930Z 17011KT 08/M12 A3015 RMK A01 T00831118  RH  023%=      5-min Rain = 0
KTAS 121931Z 18012KT 08/M12 A3015 RMK A01 T00841118  RH  023%=      5-min Rain = 0
KTAS 121932Z 17011KT 09/M12 A3015 RMK A01 T00871117  RH  022%=      5-min Rain = 0
KTAS 121933Z 18012KT 09/M12 A3015 RMK A01 T00891117  RH  022%=      5-min Rain = 0
KTAS 121934Z 19012KT 09/M12 A3015 RMK A01 T00871119  RH  022%=      5-min Rain = 0
KTAS 121935Z 17011KT 09/M12 A3015 RMK A01 T00851118  RH  022%=      5-min Rain = 0
KTAS 121936Z 17010KT 09/M12 A3015 RMK A01 T00881116  RH  022%=      5-min Rain = 0
KTAS 121937Z 17013KT 09/M12 A3015 RMK A01 T00891117  RH  022%=      5-min Rain = 0
KTAS 121938Z 17012KT 09/M12 A3015 RMK A01 T00901116  RH  022%=      5-min Rain = 0
KTAS 121939Z 17014KT 09/M12 A3015 RMK A01 T00911117  RH  022%=      5-min Rain = 0
KTAS 121940Z 17012KT 09/M12 A3014 RMK A01 T00851120  RH  022%=      5-min Rain = 0
KTAS 121941Z 16012KT 08/M12 A3014 RMK A01 T00841117  RH  023%=      5-min Rain = 0
KTAS 121942Z 17010KT 09/M12 A3014 RMK A01 T00861117  RH  022%=      5-min Rain = 0
KTAS 121943Z 17009KT 09/M12 A3014 RMK A01 T00891115  RH  022%=      5-min Rain = 0
KTAS 121944Z 17014G19KT 09/M12 A3014 RMK A01 T00901117  RH  022%=      5-min Rain = 0
KTAS 121945Z 17015KT 09/M12 A3014 RMK A01 T00871118  RH  022%=      5-min Rain = 0
KTAS 121946Z 17015KT 09/M12 A3014 RMK A01 T00851119  RH  022%=      5-min Rain = 0
KTAS 121947Z 16012KT 08/M12 A3014 RMK A01 T00841117  RH  023%=      5-min Rain = 0
KTAS 121948Z 17013KT 09/M12 A3014 RMK A01 T00851118  RH  022%=      5-min Rain = 0
KTAS 121949Z 16012KT 08/M12 A3014 RMK A01 T00841118  RH  023%=      5-min Rain = 0
KTAS 121950Z 16010KT 09/M12 A3014 RMK A01 T00851118  RH  022%=      5-min Rain = 0
KTAS 121951Z 17010KT 09/M12 A3014 RMK A01 T00861116  RH  023%=      5-min Rain = 0
KTAS 121952Z 18011KT 09/M12 A3014 RMK A01 T00891116  RH  022%=      5-min Rain = 0
KTAS 121953Z 18008KT 09/M12 A3014 RMK A01 T00871118  RH  022%=      5-min Rain = 0
KTAS 121954Z 18011KT 09/M12 A3014 RMK A01 T00901115  RH  022%=      5-min Rain = 0
KTAS 121955Z 19014KT 09/M12 A3014 RMK A01 T00921118  RH  021%=      5-min Rain = 0
KTAS 121956Z 19012KT 09/M12 A3014 RMK A01 T00881119  RH  022%=      5-min Rain = 0
KTAS 121957Z 18012KT 09/M12 A3014 RMK A01 T00901117  RH  022%=      5-min Rain = 0
KTAS 121958Z 18013G20KT 09/M12 A3014 RMK A01 T00921118  RH  021%=      5-min Rain = 0
KTAS 121959Z 18010KT 09/M12 A3014 RMK A01 T00911119  RH  021%=      5-min Rain = 0
KTAS 122000Z 16013KT 09/M12 A3014 RMK A01 T00901118  RH  022%=      5-min Rain = 0
KTAS 122001Z 18012KT 09/M12 A3014 RMK A01 T00911118  RH  021%=      5-min Rain = 0
KTAS 122002Z 18011KT 10/M12 A3014 RMK A01 T00951117  RH  021%=      5-min Rain = 0
KTAS 122003Z 17014KT 10/M12 A3014 RMK A01 T00971118  RH  021%=      5-min Rain = 0
KTAS 122004Z 17014KT 10/M12 A3014 RMK A01 T00951120  RH  021%=      5-min Rain = 0
KTAS 122005Z 16014KT 09/M12 A3013 RMK A01 T00921120  RH  021%=      5-min Rain = 0
KTAS 122006Z 18012KT 09/M12 A3014 RMK A01 T00901120  RH  021%=      5-min Rain = 0
KTAS 122007Z 18010KT 09/M12 A3014 RMK A01 T00911119  RH  021%=      5-min Rain = 0
KTAS 122008Z 18008KT 09/M12 A3014 RMK A01 T00931118  RH  021%=      5-min Rain = 0
KTAS 122009Z 17011KT 10/M12 A3014 RMK A01 T00961119  RH  021%=      5-min Rain = 0
KTAS 122010Z 17011KT 09/M12 A3014 RMK A01 T00941120  RH  021%=      5-min Rain = 0
KTAS 122011Z 17013KT 10/M12 A3014 RMK A01 T00971118  RH  021%=      5-min Rain = 0
KTAS 122012Z 16014KT 10/M12 A3014 RMK A01 T00981119  RH  020%=      5-min Rain = 0
KTAS 122013Z 16012G19KT 10/M12 A3013 RMK A01 T00971117  RH  021%=      5-min Rain = 0
KTAS 122014Z 18016KT 10/M12 A3013 RMK A01 T00981117  RH  021%=      5-min Rain = 0
KTAS 122015Z 19014KT 10/M12 A3014 RMK A01 T00991116  RH  021%=      5-min Rain = 0
KTAS 122016Z 19013KT 10/M12 A3014 RMK A01 T00981117  RH  021%=      5-min Rain = 0
KTAS 122017Z 20012KT 10/M12 A3013 RMK A01 T00961118  RH  021%=      5-min Rain = 0
KTAS 122018Z 19013KT 10/M12 A3014 RMK A01 T00951117  RH  021%=      5-min Rain = 0
KTAS 122019Z 19012KT 10/M12 A3014 RMK A01 T00961116  RH  021%=      5-min Rain = 0
KTAS 122020Z 20012KT 10/M12 A3013 RMK A01 T00971115  RH  021%=      5-min Rain = 0
KTAS 122021Z 21009KT 10/M12 A3013 RMK A01 T00961115  RH  021%=      5-min Rain = 0
KTAS 122022Z 19009KT 10/M11 A3013 RMK A01 T01001114  RH  021%=      5-min Rain = 0
KTAS 122023Z 18012KT 10/M12 A3013 RMK A01 T00991116  RH  021%=      5-min Rain = 0
KTAS 122024Z 17011KT 10/M12 A3013 RMK A01 T01001116  RH  021%=      5-min Rain = 0
KTAS 122025Z 18011KT 10/M12 A3013 RMK A01 T01011115  RH  021%=      5-min Rain = 0
KTAS 122026Z 19011KT 10/M11 A3013 RMK A01 T01041114  RH  020%=      5-min Rain = 0
KTAS 122027Z 18013KT 11/M12 A3013 RMK A01 T01051116  RH  020%=      5-min Rain = 0
KTAS 122028Z 19010KT 10/M12 A3013 RMK A01 T01021117  RH  020%=      5-min Rain = 0
KTAS 122029Z 17012KT 10/M12 A3013 RMK A01 T01021115  RH  020%=      5-min Rain = 0
KTAS 122030Z 18012KT 10/M12 A3013 RMK A01 T01011115  RH  021%=      5-min Rain = 0
KTAS 122031Z 18011KT 10/M12 A3013 RMK A01 T00981115  RH  021%=      5-min Rain = 0
KTAS 122032Z 17012KT 10/M11 A3013 RMK A01 T00991113  RH  021%=      5-min Rain = 0
KTAS 122033Z 20012KT 10/M11 A3013 RMK A01 T01031112  RH  021%=      5-min Rain = 0
KTAS 122034Z 22014KT 10/M11 A3013 RMK A01 T01021113  RH  021%=      5-min Rain = 0
KTAS 122035Z 22012KT 10/M11 A3013 RMK A01 T00991113  RH  021%=      5-min Rain = 0
KTAS 122036Z 19010KT 10/M11 A3013 RMK A01 T00971112  RH  022%=      5-min Rain = 0
KTAS 122037Z 18009KT 10/M11 A3013 RMK A01 T00991110  RH  022%=      5-min Rain = 0
KTAS 122038Z 17009KT 10/M11 A3013 RMK A01 T01001111  RH  021%=      5-min Rain = 0
KTAS 122039Z 19009KT 10/M11 A3013 RMK A01 T01011111  RH  021%=      5-min Rain = 0
KTAS 122040Z 18010KT 10/M11 A3013 RMK A01 T01001112  RH  021%=      5-min Rain = 0
KTAS 122041Z 17011KT 10/M11 A3013 RMK A01 T01001111  RH  021%=      5-min Rain = 0
KTAS 122042Z 16008KT 10/M11 A3013 RMK A01 T01001111  RH  021%=      5-min Rain = 0
KTAS 122043Z 17007KT 10/M11 A3013 RMK A01 T01021110  RH  021%=      5-min Rain = 0
KTAS 122044Z 18009KT 10/M11 A3013 RMK A01 T01041111  RH  021%=      5-min Rain = 0
KTAS 122045Z 19012KT 11/M11 A3013 RMK A01 T01051110  RH  021%=      5-min Rain = 0
KTAS 122046Z 19010KT 11/M11 A3013 RMK A01 T01051110  RH  021%=      5-min Rain = 0
KTAS 122047Z 18011KT 10/M11 A3013 RMK A01 T01031111  RH  021%=      5-min Rain = 0
KTAS 122048Z 17010KT 10/M11 A3013 RMK A01 T01021110  RH  021%=      5-min Rain = 0
KTAS 122049Z 17010KT 10/M11 A3013 RMK A01 T01021109  RH  021%=      5-min Rain = 0
KTAS 122050Z 18012KT 10/M11 A3013 RMK A01 T01041109  RH  021%=      5-min Rain = 0
KTAS 122051Z 17010KT 10/M11 A3013 RMK A01 T01041110  RH  021%=      5-min Rain = 0
KTAS 122052Z 17010KT 10/M11 A3013 RMK A01 T01031110  RH  021%=      5-min Rain = 0
KTAS 122053Z 18007KT 10/M11 A3013 RMK A01 T01011110  RH  021%=      5-min Rain = 0
KTAS 122054Z 18010KT 10/M11 A3013 RMK A01 T01001109  RH  022%=      5-min Rain = 0
KTAS 122055Z 18007KT 10/M11 A3013 RMK A01 T01011108  RH  022%=      5-min Rain = 0
KTAS 122056Z 19010KT 10/M11 A3013 RMK A01 T01011109  RH  022%=      5-min Rain = 0
KTAS 122057Z 18010KT 10/M11 A3013 RMK A01 T01031108  RH  022%=      5-min Rain = 0
KTAS 122058Z 18011KT 11/M11 A3013 RMK A01 T01051108  RH  021%=      5-min Rain = 0
KTAS 122059Z 18010KT 10/M11 A3013 RMK A01 T01041109  RH  021%=      5-min Rain = 0
KTAS 122100Z 18012KT 10/M11 A3013 RMK A01 T01021108  RH  022%=      5-min Rain = 0
KTAS 122101Z 17011KT 10/M11 A3013 RMK A01 T01031108  RH  022%=      5-min Rain = 0
KTAS 122102Z 17008KT 11/M11 A3013 RMK A01 T01051107  RH  021%=      5-min Rain = 0
KTAS 122103Z 16004KT 11/M11 A3013 RMK A01 T01061106  RH  021%=      5-min Rain = 0
KTAS 122104Z 23008KT 11/M11 A3013 RMK A01 T01071107  RH  021%=      5-min Rain = 0
KTAS 122105Z 21011KT 11/M11 A3013 RMK A01 T01061106  RH  021%=      5-min Rain = 0
KTAS 122106Z 21009KT 11/M11 A3013 RMK A01 T01071108  RH  021%=      5-min Rain = 0
KTAS 122107Z 18008KT 10/M11 A3013 RMK A01 T01021109  RH  022%=      5-min Rain = 0
KTAS 122108Z 18008KT 10/M11 A3013 RMK A01 T01011108  RH  022%=      5-min Rain = 0
KTAS 122109Z 18011KT 10/M11 A3013 RMK A01 T01031107  RH  022%=      5-min Rain = 0
KTAS 122110Z 19010KT 10/M11 A3013 RMK A01 T01041108  RH  021%=      5-min Rain = 0
KTAS 122111Z 18010KT 10/M11 A3013 RMK A01 T01031108  RH  021%=      5-min Rain = 0
KTAS 122112Z 17010KT 10/M11 A3013 RMK A01 T01041108  RH  021%=      5-min Rain = 0
KTAS 122113Z 18009KT 10/M11 A3013 RMK A01 T01041109  RH  021%=      5-min Rain = 0
KTAS 122114Z 18008KT 10/M11 A3013 RMK A01 T01041108  RH  021%=      5-min Rain = 0
KTAS 122115Z 19008KT 11/M11 A3013 RMK A01 T01061108  RH  021%=      5-min Rain = 0
KTAS 122116Z 20009KT 11/M11 A3013 RMK A01 T01051109  RH  021%=      5-min Rain = 0
KTAS 122117Z 18009KT 10/M11 A3013 RMK A01 T01041109  RH  021%=      5-min Rain = 0
KTAS 122118Z 18011KT 11/M11 A3013 RMK A01 T01061107  RH  021%=      5-min Rain = 0
KTAS 122119Z 17011KT 11/M11 A3013 RMK A01 T01081109  RH  021%=      5-min Rain = 0
KTAS 122120Z 17013KT 11/M11 A3013 RMK A01 T01071109  RH  021%=      5-min Rain = 0
KTAS 122121Z 17010KT 11/M11 A3013 RMK A01 T01051109  RH  021%=      5-min Rain = 0
KTAS 122122Z 18013KT 11/M11 A3013 RMK A01 T01061109  RH  021%=      5-min Rain = 0
KTAS 122123Z 19009KT 10/M11 A3013 RMK A01 T01041109  RH  021%=      5-min Rain = 0
KTAS 122124Z 18009KT 10/M11 A3013 RMK A01 T01041108  RH  021%=      5-min Rain = 0
KTAS 122125Z 17008KT 11/M11 A3013 RMK A01 T01091107  RH  021%=      5-min Rain = 0
KTAS 122126Z 18008KT 11/M11 A3013 RMK A01 T01121108  RH  020%=      5-min Rain = 0
KTAS 122127Z 18009KT 11/M11 A3013 RMK A01 T01111110  RH  020%=      5-min Rain = 0
KTAS 122128Z 16009G14KT 11/M11 A3013 RMK A01 T01101110  RH  020%=      5-min Rain = 0
KTAS 122129Z 15013KT 11/M11 A3013 RMK A01 T01091110  RH  020%=      5-min Rain = 0
KTAS 122130Z 16013KT 11/M11 A3013 RMK A01 T01081110  RH  021%=      5-min Rain = 0
KTAS 122131Z 16009KT 11/M11 A3013 RMK A01 T01061110  RH  021%=      5-min Rain = 0
KTAS 122132Z 19011KT 11/M11 A3012 RMK A01 T01071108  RH  021%=      5-min Rain = 0
KTAS 122133Z 18009KT 11/M11 A3012 RMK A01 T01061109  RH  021%=      5-min Rain = 0
KTAS 122134Z 18009KT 11/M11 A3012 RMK A01 T01061107  RH  021%=      5-min Rain = 0
KTAS 122135Z 17010KT 11/M11 A3012 RMK A01 T01101107  RH  021%=      5-min Rain = 0
KTAS 122136Z 18010KT 11/M11 A3013 RMK A01 T01101108  RH  021%=      5-min Rain = 0
KTAS 122137Z 19009KT 11/M11 A3013 RMK A01 T01091107  RH  021%=      5-min Rain = 0
KTAS 122138Z 17009KT 11/M11 A3013 RMK A01 T01091107  RH  021%=      5-min Rain = 0
KTAS 122139Z 18009KT 11/M11 A3012 RMK A01 T01091107  RH  021%=      5-min Rain = 0
KTAS 122140Z 17012KT 11/M11 A3012 RMK A01 T01111107  RH  021%=      5-min Rain = 0
KTAS 122141Z 17011KT 11/M11 A3012 RMK A01 T01101108  RH  021%=      5-min Rain = 0
KTAS 122142Z 17011KT 11/M11 A3012 RMK A01 T01071108  RH  021%=      5-min Rain = 0
KTAS 122143Z 18007KT 11/M11 A3012 RMK A01 T01071107  RH  021%=      5-min Rain = 0
KTAS 122144Z 18008KT 11/M11 A3012 RMK A01 T01071107  RH  021%=      5-min Rain = 0
KTAS 122145Z 18007G12KT 11/M11 A3012 RMK A01 T01081106  RH  021%=      5-min Rain = 0
KTAS 122146Z 18012KT 11/M11 A3012 RMK A01 T01111107  RH  021%=      5-min Rain = 0
KTAS 122147Z 18009KT 11/M11 A3012 RMK A01 T01091108  RH  021%=      5-min Rain = 0
KTAS 122148Z 19010KT 11/M11 A3012 RMK A01 T01081107  RH  021%=      5-min Rain = 0
KTAS 122149Z 19010KT 11/M11 A3012 RMK A01 T01071107  RH  021%=      5-min Rain = 0
KTAS 122150Z 18009KT 11/M11 A3012 RMK A01 T01081107  RH  021%=      5-min Rain = 0
KTAS 122151Z 18011KT 11/M11 A3012 RMK A01 T01091107  RH  021%=      5-min Rain = 0
KTAS 122152Z 17010KT 11/M11 A3012 RMK A01 T01081108  RH  021%=      5-min Rain = 0
KTAS 122153Z 17008KT 11/M11 A3012 RMK A01 T01081108  RH  021%=      5-min Rain = 0
KTAS 122154Z 16009KT 11/M11 A3012 RMK A01 T01081108  RH  021%=      5-min Rain = 0
KTAS 122155Z 16011KT 11/M11 A3012 RMK A01 T01071108  RH  021%=      5-min Rain = 0
KTAS 122156Z 16012KT 11/M11 A3012 RMK A01 T01071108  RH  021%=      5-min Rain = 0
KTAS 122157Z 18012KT 11/M11 A3012 RMK A01 T01061107  RH  021%=      5-min Rain = 0
KTAS 122158Z 18010KT 11/M11 A3012 RMK A01 T01071108  RH  021%=      5-min Rain = 0
KTAS 122159Z 16009KT 11/M11 A3012 RMK A01 T01071107  RH  021%=      5-min Rain = 0
KTAS 122200Z 15008KT 11/M11 A3012 RMK A01 T01081107  RH  021%=      5-min Rain = 0
KTAS 122201Z 15009KT 11/M11 A3012 RMK A01 T01091107  RH  021%=      5-min Rain = 0
KTAS 122202Z 17010KT 11/M11 A3012 RMK A01 T01091107  RH  021%=      5-min Rain = 0
KTAS 122203Z 17007KT 11/M11 A3012 RMK A01 T01101107  RH  021%=      5-min Rain = 0
KTAS 122204Z 18007KT 11/M11 A3012 RMK A01 T01111107  RH  021%=      5-min Rain = 0
KTAS 122205Z 17011KT 11/M11 A3012 RMK A01 T01131108  RH  020%=      5-min Rain = 0
KTAS 122206Z 18010KT 11/M11 A3012 RMK A01 T01111109  RH  020%=      5-min Rain = 0
KTAS 122207Z 18009KT 11/M11 A3012 RMK A01 T01091109  RH  020%=      5-min Rain = 0
KTAS 122208Z 17009KT 11/M11 A3012 RMK A01 T01071109  RH  021%=      5-min Rain = 0
KTAS 122209Z 17010KT 11/M11 A3012 RMK A01 T01081109  RH  021%=      5-min Rain = 0
KTAS 122210Z 17010KT 11/M11 A3012 RMK A01 T01071109  RH  021%=      5-min Rain = 0
KTAS 122211Z 16008KT 11/M11 A3012 RMK A01 T01081108  RH  021%=      5-min Rain = 0
KTAS 122212Z 15010KT 11/M11 A3012 RMK A01 T01101108  RH  021%=      5-min Rain = 0
KTAS 122213Z 16011KT 11/M11 A3012 RMK A01 T01101108  RH  021%=      5-min Rain = 0
KTAS 122214Z 17012KT 11/M11 A3012 RMK A01 T01101109  RH  020%=      5-min Rain = 0
KTAS 122215Z 16010KT 11/M11 A3012 RMK A01 T01081109  RH  021%=      5-min Rain = 0
KTAS 122216Z 16010KT 11/M11 A3012 RMK A01 T01081108  RH  021%=      5-min Rain = 0
KTAS 122217Z 16012KT 11/M11 A3012 RMK A01 T01101108  RH  021%=      5-min Rain = 0
KTAS 122218Z 16012KT 11/M11 A3012 RMK A01 T01101108  RH  020%=      5-min Rain = 0
KTAS 122219Z 15012KT 11/M11 A3012 RMK A01 T01081109  RH  021%=      5-min Rain = 0
KTAS 122220Z 16011KT 11/M11 A3012 RMK A01 T01071109  RH  021%=      5-min Rain = 0
KTAS 122221Z 15010KT 11/M11 A3012 RMK A01 T01071109  RH  021%=      5-min Rain = 0
KTAS 122222Z 13006KT 11/M11 A3012 RMK A01 T01071108  RH  021%=      5-min Rain = 0
KTAS 122223Z 18011G16KT 11/M11 A3012 RMK A01 T01081107  RH  021%=      5-min Rain = 0
KTAS 122224Z 18010KT 11/M11 A3012 RMK A01 T01101107  RH  021%=      5-min Rain = 0
KTAS 122225Z 18010KT 11/M11 A3012 RMK A01 T01111107  RH  021%=      5-min Rain = 0
KTAS 122226Z 18010KT 11/M11 A3012 RMK A01 T01121107  RH  020%=      5-min Rain = 0
KTAS 122227Z 17011KT 11/M11 A3012 RMK A01 T01111108  RH  020%=      5-min Rain = 0
KTAS 122228Z 18008KT 11/M11 A3012 RMK A01 T01091107  RH  021%=      5-min Rain = 0
KTAS 122229Z 17009KT 11/M11 A3012 RMK A01 T01091107  RH  021%=      5-min Rain = 0
KTAS 122230Z 17009KT 11/M11 A3012 RMK A01 T01091107  RH  021%=      5-min Rain = 0
KTAS 122231Z 16008KT 11/M11 A3012 RMK A01 T01081107  RH  021%=      5-min Rain = 0
KTAS 122232Z 16010KT 11/M11 A3012 RMK A01 T01091107  RH  021%=      5-min Rain = 0
KTAS 122233Z 16009KT 11/M11 A3012 RMK A01 T01091107  RH  021%=      5-min Rain = 0
KTAS 122234Z 15010KT 11/M11 A3012 RMK A01 T01091108  RH  021%=      5-min Rain = 0
KTAS 122235Z 14008KT 11/M11 A3012 RMK A01 T01071108  RH  021%=      5-min Rain = 0
KTAS 122236Z 14006G11KT 11/M11 A3012 RMK A01 T01071108  RH  021%=      5-min Rain = 0
KTAS 122237Z 17011KT 11/M11 A3012 RMK A01 T01091107  RH  021%=      5-min Rain = 0
KTAS 122238Z 16011KT 11/M11 A3012 RMK A01 T01091107  RH  021%=      5-min Rain = 0
KTAS 122239Z 16011KT 11/M11 A3012 RMK A01 T01091107  RH  021%=      5-min Rain = 0
KTAS 122240Z 16012KT 11/M11 A3012 RMK A01 T01081108  RH  021%=      5-min Rain = 0
KTAS 122241Z 16011KT 11/M11 A3012 RMK A01 T01071108  RH  021%=      5-min Rain = 0
KTAS 122242Z 14010KT 11/M11 A3012 RMK A01 T01061108  RH  021%=      5-min Rain = 0
KTAS 122243Z 14011KT 11/M11 A3012 RMK A01 T01061108  RH  021%=      5-min Rain = 0
KTAS 122244Z 14011KT 11/M11 A3012 RMK A01 T01051108  RH  021%=      5-min Rain = 0
KTAS 122245Z 15010KT 11/M11 A3012 RMK A01 T01051107  RH  021%=      5-min Rain = 0
KTAS 122246Z 17010KT 11/M11 A3012 RMK A01 T01061106  RH  021%=      5-min Rain = 0
KTAS 122247Z 17010KT 11/M11 A3012 RMK A01 T01071107  RH  021%=      5-min Rain = 0
KTAS 122248Z 17009KT 11/M11 A3012 RMK A01 T01071107  RH  021%=      5-min Rain = 0
KTAS 122249Z 17007KT 11/M11 A3012 RMK A01 T01071107  RH  021%=      5-min Rain = 0
KTAS 122250Z 16008KT 11/M11 A3012 RMK A01 T01081107  RH  021%=      5-min Rain = 0
KTAS 122251Z 15010KT 11/M11 A3012 RMK A01 T01091107  RH  021%=      5-min Rain = 0
KTAS 122252Z 15012KT 11/M11 A3012 RMK A01 T01071108  RH  021%=      5-min Rain = 0
KTAS 122253Z 15010KT 11/M11 A3012 RMK A01 T01061108  RH  021%=      5-min Rain = 0
KTAS 122254Z 15012KT 11/M11 A3012 RMK A01 T01051108  RH  021%=      5-min Rain = 0
KTAS 122255Z 16011KT 10/M11 A3012 RMK A01 T01041107  RH  021%=      5-min Rain = 0
KTAS 122256Z 16009KT 10/M11 A3012 RMK A01 T01041107  RH  021%=      5-min Rain = 0
KTAS 122257Z 17010KT 10/M11 A3012 RMK A01 T01041107  RH  021%=      5-min Rain = 0
KTAS 122258Z 16009KT 11/M11 A3012 RMK A01 T01051107  RH  021%=      5-min Rain = 0
KTAS 122259Z 15009KT 11/M11 A3012 RMK A01 T01061107  RH  021%=      5-min Rain = 0
KTAS 122300Z 14010KT 11/M11 A3012 RMK A01 T01051108  RH  021%=      5-min Rain = 0
KTAS 122301Z 14009KT 10/M11 A3012 RMK A01 T01041108  RH  021%=      5-min Rain = 0
KTAS 122302Z 14009KT 10/M11 A3012 RMK A01 T01031108  RH  022%=      5-min Rain = 0
KTAS 122303Z 15012KT 10/M11 A3012 RMK A01 T01031108  RH  022%=      5-min Rain = 0
KTAS 122304Z 15011KT 10/M11 A3012 RMK A01 T01021107  RH  022%=      5-min Rain = 0
KTAS 122305Z 15007KT 10/M11 A3012 RMK A01 T01031107  RH  022%=      5-min Rain = 0
KTAS 122306Z 15008KT 10/M11 A3012 RMK A01 T01031107  RH  022%=      5-min Rain = 0
KTAS 122307Z 15010KT 10/M11 A3012 RMK A01 T01031107  RH  022%=      5-min Rain = 0
KTAS 122308Z 15010KT 10/M11 A3012 RMK A01 T01031107  RH  022%=      5-min Rain = 0
KTAS 122309Z 15009KT 10/M11 A3012 RMK A01 T01021107  RH  022%=      5-min Rain = 0
KTAS 122310Z 15009KT 10/M11 A3012 RMK A01 T01021107  RH  022%=      5-min Rain = 0
KTAS 122311Z 15008KT 10/M11 A3012 RMK A01 T01011106  RH  022%=      5-min Rain = 0
KTAS 122312Z 15011KT 10/M11 A3012 RMK A01 T01021106  RH  022%=      5-min Rain = 0
KTAS 122313Z 15011KT 10/M11 A3012 RMK A01 T01011106  RH  022%=      5-min Rain = 0
KTAS 122314Z 14011KT 10/M11 A3012 RMK A01 T01011106  RH  022%=      5-min Rain = 0
KTAS 122315Z 15011KT 10/M11 A3012 RMK A01 T01001107  RH  022%=      5-min Rain = 0
KTAS 122316Z 15012KT 10/M11 A3012 RMK A01 T01001107  RH  022%=      5-min Rain = 0
KTAS 122317Z 15011KT 10/M11 A3012 RMK A01 T00991107  RH  022%=      5-min Rain = 0
KTAS 122318Z 16010KT 10/M11 A3012 RMK A01 T00991107  RH  022%=      5-min Rain = 0
KTAS 122319Z 15010KT 10/M11 A3012 RMK A01 T00991107  RH  022%=      5-min Rain = 0
KTAS 122320Z 15010KT 10/M11 A3012 RMK A01 T00991107  RH  022%=      5-min Rain = 0
KTAS 122321Z 15009KT 10/M11 A3012 RMK A01 T00991107  RH  022%=      5-min Rain = 0
KTAS 122322Z 15009KT 10/M11 A3012 RMK A01 T00981107  RH  022%=      5-min Rain = 0
KTAS 122323Z 15010KT 10/M11 A3012 RMK A01 T00971107  RH  022%=      5-min Rain = 0
KTAS 122324Z 15009KT 10/M11 A3012 RMK A01 T00971108  RH  022%=      5-min Rain = 0
KTAS 122325Z 15010KT 10/M11 A3012 RMK A01 T00971108  RH  022%=      5-min Rain = 0
KTAS 122326Z 15009KT 10/M11 A3012 RMK A01 T00971108  RH  023%=      5-min Rain = 0
KTAS 122327Z 15008KT 10/M11 A3012 RMK A01 T00961108  RH  023%=      5-min Rain = 0
KTAS 122328Z 15009KT 10/M11 A3012 RMK A01 T00951108  RH  023%=      5-min Rain = 0
KTAS 122329Z 15008KT 10/M11 A3012 RMK A01 T00951108  RH  023%=      5-min Rain = 0
KTAS 122330Z 14009KT 09/M11 A3012 RMK A01 T00941108  RH  023%=      5-min Rain = 0
KTAS 122331Z 15007KT 09/M11 A3012 RMK A01 T00941109  RH  023%=      5-min Rain = 0
KTAS 122332Z 14008KT 09/M11 A3012 RMK A01 T00931109  RH  023%=      5-min Rain = 0
KTAS 122333Z 14008KT 09/M11 A3012 RMK A01 T00931109  RH  023%=      5-min Rain = 0
KTAS 122334Z 14009KT 09/M11 A3013 RMK A01 T00921109  RH  023%=      5-min Rain = 0
KTAS 122335Z 15009KT 09/M11 A3013 RMK A01 T00911109  RH  023%=      5-min Rain = 0
KTAS 122336Z 14008KT 09/M11 A3013 RMK A01 T00911109  RH  023%=      5-min Rain = 0
KTAS 122337Z 14008KT 09/M11 A3013 RMK A01 T00911109  RH  023%=      5-min Rain = 0
KTAS 122338Z 14008KT 09/M11 A3013 RMK A01 T00901109  RH  023%=      5-min Rain = 0
KTAS 122339Z 14008KT 09/M11 A3013 RMK A01 T00901109  RH  023%=      5-min Rain = 0
KTAS 122340Z 14008KT 09/M11 A3013 RMK A01 T00891109  RH  023%=      5-min Rain = 0
KTAS 122341Z 13008KT 09/M11 A3013 RMK A01 T00881109  RH  023%=      5-min Rain = 0
KTAS 122342Z 13008KT 09/M11 A3013 RMK A01 T00871110  RH  024%=      5-min Rain = 0
KTAS 122343Z 14008KT 09/M11 A3013 RMK A01 T00861110  RH  024%=      5-min Rain = 0
KTAS 122344Z 13008KT 09/M11 A3013 RMK A01 T00851110  RH  024%=      5-min Rain = 0
KTAS 122345Z 13008KT 08/M11 A3013 RMK A01 T00841110  RH  024%=      5-min Rain = 0
KTAS 122346Z 13007KT 08/M11 A3013 RMK A01 T00831111  RH  024%=      5-min Rain = 0
KTAS 122347Z 13007KT 08/M11 A3013 RMK A01 T00821111  RH  024%=      5-min Rain = 0
KTAS 122348Z 13007KT 08/M11 A3013 RMK A01 T00811111  RH  024%=      5-min Rain = 0
KTAS 122349Z 13007KT 08/M11 A3013 RMK A01 T00791111  RH  025%=      5-min Rain = 0
KTAS 122350Z 13007KT 08/M11 A3013 RMK A01 T00781111  RH  025%=      5-min Rain = 0
KTAS 122351Z 13007KT 08/M11 A3013 RMK A01 T00771112  RH  025%=      5-min Rain = 0
KTAS 122352Z 13007KT 08/M11 A3013 RMK A01 T00761112  RH  025%=      5-min Rain = 0
KTAS 122353Z 13007KT 08/M11 A3013 RMK A01 T00751112  RH  025%=      5-min Rain = 0
KTAS 122354Z 13007KT 07/M11 A3014 RMK A01 T00741112  RH  025%=      5-min Rain = 0
KTAS 122355Z 13007KT 07/M11 A3014 RMK A01 T00731112  RH  026%=      5-min Rain = 0
KTAS 122356Z 12007KT 07/M11 A3014 RMK A01 T00711113  RH  026%=      5-min Rain = 0
KTAS 122357Z 12007KT 07/M11 A3014 RMK A01 T00701113  RH  026%=      5-min Rain = 0
KTAS 122358Z 12007KT 07/M11 A3014 RMK A01 T00691112  RH  026%=      5-min Rain = 0
KTAS 122359Z 12007KT 07/M11 A3014 RMK A01 T00681113  RH  026%=      5-min Rain = 0
KTAS 130000Z 12007KT 07/M11 A3014 RMK A01 T00671113  RH  026%=      5-min Rain = 0
KTAS 130001Z 12007KT 07/M11 A3014 RMK A01 T00661113  RH  026%=      5-min Rain = 0
KTAS 130002Z 12007KT 07/M11 A3014 RMK A01 T00651113  RH  027%=      5-min Rain = 0
KTAS 130003Z 12007KT 06/M11 A3014 RMK A01 T00641114  RH  027%=      5-min Rain = 0
KTAS 130004Z 13007KT 06/M11 A3014 RMK A01 T00631114  RH  027%=      5-min Rain = 0
KTAS 130005Z 13007KT 06/M11 A3014 RMK A01 T00621114  RH  027%=      5-min Rain = 0
KTAS 130006Z 13007KT 06/M11 A3014 RMK A01 T00611114  RH  027%=      5-min Rain = 0
KTAS 130007Z 13007KT 06/M11 A3014 RMK A01 T00601114  RH  027%=      5-min Rain = 0
KTAS 130008Z 13007KT 06/M11 A3014 RMK A01 T00591114  RH  028%=      5-min Rain = 0
KTAS 130009Z 13007KT 06/M12 A3014 RMK A01 T00581115  RH  028%=      5-min Rain = 0
KTAS 130010Z 13006KT 06/M12 A3014 RMK A01 T00571115  RH  028%=      5-min Rain = 0
KTAS 130011Z 12006KT 06/M12 A3014 RMK A01 T00561115  RH  028%=      5-min Rain = 0
KTAS 130012Z 12006KT 06/M12 A3015 RMK A01 T00551115  RH  028%=      5-min Rain = 0
KTAS 130013Z 12006KT 05/M12 A3015 RMK A01 T00541115  RH  028%=      5-min Rain = 0
KTAS 130014Z 11006KT 05/M12 A3015 RMK A01 T00531116  RH  028%=      5-min Rain = 0
KTAS 130015Z 11006KT 05/M12 A3015 RMK A01 T00521116  RH  029%=      5-min Rain = 0
KTAS 130016Z 11006KT 05/M12 A3015 RMK A01 T00511115  RH  029%=      5-min Rain = 0
KTAS 130017Z 11006KT 05/M12 A3015 RMK A01 T00501116  RH  029%=      5-min Rain = 0
KTAS 130018Z 12007KT 05/M12 A3015 RMK A01 T00491116  RH  029%=      5-min Rain = 0
KTAS 130019Z 12007KT 05/M12 A3015 RMK A01 T00491115  RH  029%=      5-min Rain = 0
KTAS 130020Z 12007KT 05/M12 A3015 RMK A01 T00491115  RH  029%=      5-min Rain = 0
KTAS 130021Z 11007KT 05/M12 A3015 RMK A01 T00481115  RH  030%=      5-min Rain = 0
KTAS 130022Z 11007KT 05/M12 A3015 RMK A01 T00481115  RH  030%=      5-min Rain = 0
KTAS 130023Z 11007KT 05/M12 A3015 RMK A01 T00471116  RH  030%=      5-min Rain = 0
KTAS 130024Z 11007KT 05/M12 A3015 RMK A01 T00461116  RH  030%=      5-min Rain = 0
KTAS 130025Z 10007KT 05/M12 A3015 RMK A01 T00451116  RH  030%=      5-min Rain = 0
KTAS 130026Z 10006KT 04/M12 A3015 RMK A01 T00441117  RH  030%=      5-min Rain = 0
KTAS 130027Z 09006KT 04/M12 A3016 RMK A01 T00421117  RH  030%=      5-min Rain = 0
KTAS 130028Z 09006KT 04/M12 A3016 RMK A01 T00411117  RH  031%=      5-min Rain = 0
KTAS 130029Z 09007KT 04/M12 A3016 RMK A01 T00401117  RH  031%=      5-min Rain = 0
KTAS 130030Z 09007KT 04/M12 A3016 RMK A01 T00401116  RH  031%=      5-min Rain = 0
KTAS 130031Z 10007KT 04/M12 A3016 RMK A01 T00411115  RH  031%=      5-min Rain = 0
KTAS 130032Z 10007KT 04/M12 A3016 RMK A01 T00411116  RH  031%=      5-min Rain = 0
KTAS 130033Z 10007KT 04/M12 A3016 RMK A01 T00411116  RH  031%=      5-min Rain = 0
KTAS 130034Z 10007KT 04/M12 A3016 RMK A01 T00411116  RH  031%=      5-min Rain = 0
KTAS 130035Z 10007KT 04/M12 A3016 RMK A01 T00411117  RH  031%=      5-min Rain = 0
KTAS 130036Z 10008KT 04/M12 A3016 RMK A01 T00401117  RH  031%=      5-min Rain = 0
KTAS 130037Z 10008KT 04/M12 A3016 RMK A01 T00391117  RH  031%=      5-min Rain = 0
KTAS 130038Z 10008KT 04/M12 A3016 RMK A01 T00391118  RH  031%=      5-min Rain = 0
KTAS 130039Z 10008KT 04/M12 A3016 RMK A01 T00391118  RH  031%=      5-min Rain = 0
KTAS 130040Z 10008KT 04/M12 A3016 RMK A01 T00381118  RH  031%=      5-min Rain = 0
KTAS 130041Z 10008KT 04/M12 A3016 RMK A01 T00381119  RH  031%=      5-min Rain = 0
KTAS 130042Z 10008KT 04/M12 A3016 RMK A01 T00371119  RH  031%=      5-min Rain = 0
KTAS 130043Z 10008KT 04/M12 A3016 RMK A01 T00361120  RH  031%=      5-min Rain = 0
KTAS 130044Z 10008KT 04/M12 A3016 RMK A01 T00351120  RH  031%=      5-min Rain = 0
KTAS 130045Z 11008KT 03/M12 A3016 RMK A01 T00341120  RH  031%=      5-min Rain = 0
KTAS 130046Z 11008KT 03/M12 A3016 RMK A01 T00341120  RH  031%=      5-min Rain = 0
KTAS 130047Z 11007KT 03/M12 A3016 RMK A01 T00331121  RH  031%=      5-min Rain = 0
KTAS 130048Z 11007KT 03/M12 A3016 RMK A01 T00321121  RH  031%=      5-min Rain = 0
KTAS 130049Z 11007KT 03/M12 A3017 RMK A01 T00311122  RH  032%=      5-min Rain = 0
KTAS 130050Z 10007KT 03/M12 A3017 RMK A01 T00301122  RH  032%=      5-min Rain = 0
KTAS 130051Z 10007KT 03/M12 A3017 RMK A01 T00301122  RH  032%=      5-min Rain = 0
KTAS 130052Z 10008KT 03/M12 A3017 RMK A01 T00301122  RH  032%=      5-min Rain = 0
KTAS 130053Z 10008KT 03/M12 A3017 RMK A01 T00311122  RH  032%=      5-min Rain = 0
KTAS 130054Z 10008KT 03/M12 A3017 RMK A01 T00321121  RH  031%=      5-min Rain = 0
KTAS 130055Z 11008KT 03/M12 A3017 RMK A01 T00331121  RH  031%=      5-min Rain = 0
KTAS 130056Z 10008KT 03/M12 A3017 RMK A01 T00341121  RH  031%=      5-min Rain = 0
KTAS 130057Z 11009KT 04/M12 A3017 RMK A01 T00351121  RH  031%=      5-min Rain = 0
KTAS 130058Z 11008KT 04/M12 A3017 RMK A01 T00351121  RH  031%=      5-min Rain = 0
KTAS 130059Z 11009KT 04/M12 A3017 RMK A01 T00361121  RH  031%=      5-min Rain = 0
KTAS 130100Z 11009KT 04/M12 A3017 RMK A01 T00371121  RH  031%=      5-min Rain = 0
KTAS 130101Z 10009KT 04/M12 A3017 RMK A01 T00371121  RH  030%=      5-min Rain = 0
KTAS 130102Z 10009KT 04/M12 A3017 RMK A01 T00371121  RH  030%=      5-min Rain = 0
KTAS 130103Z 10008KT 04/M12 A3017 RMK A01 T00381121  RH  030%=      5-min Rain = 0
KTAS 130104Z 10009KT 04/M12 A3017 RMK A01 T00381122  RH  030%=      5-min Rain = 0
KTAS 130105Z 10008KT 04/M12 A3017 RMK A01 T00381122  RH  030%=      5-min Rain = 0
KTAS 130106Z 10008KT 04/M12 A3017 RMK A01 T00381122  RH  030%=      5-min Rain = 0
KTAS 130107Z 10009KT 04/M12 A3017 RMK A01 T00371122  RH  030%=      5-min Rain = 0
KTAS 130108Z 10008KT 04/M12 A3017 RMK A01 T00371122  RH  030%=      5-min Rain = 0
KTAS 130109Z 10008KT 04/M12 A3017 RMK A01 T00371122  RH  030%=      5-min Rain = 0
KTAS 130110Z 10008KT 04/M12 A3017 RMK A01 T00361123  RH  030%=      5-min Rain = 0
KTAS 130111Z 10008KT 04/M12 A3017 RMK A01 T00361122  RH  030%=      5-min Rain = 0
KTAS 130112Z 10008KT 04/M12 A3017 RMK A01 T00361123  RH  030%=      5-min Rain = 0
KTAS 130113Z 11008KT 04/M12 A3017 RMK A01 T00351123  RH  030%=      5-min Rain = 0
KTAS 130114Z 10008KT 04/M12 A3017 RMK A01 T00351123  RH  030%=      5-min Rain = 0
KTAS 130115Z 10008KT 03/M12 A3017 RMK A01 T00341123  RH  031%=      5-min Rain = 0
KTAS 130116Z 11008KT 03/M12 A3017 RMK A01 T00341123  RH  031%=      5-min Rain = 0
KTAS 130117Z 10008KT 03/M12 A3017 RMK A01 T00331123  RH  031%=      5-min Rain = 0
KTAS 130118Z 10008KT 03/M12 A3017 RMK A01 T00331124  RH  031%=      5-min Rain = 0
KTAS 130119Z 11008KT 03/M12 A3017 RMK A01 T00321124  RH  031%=      5-min Rain = 0
KTAS 130120Z 10008KT 03/M12 A3018 RMK A01 T00321124  RH  031%=      5-min Rain = 0
KTAS 130121Z 10008KT 03/M12 A3018 RMK A01 T00311124  RH  031%=      5-min Rain = 0
KTAS 130122Z 10008KT 03/M13 A3018 RMK A01 T00301125  RH  031%=      5-min Rain = 0
KTAS 130123Z 10008KT 03/M13 A3018 RMK A01 T00291125  RH  031%=      5-min Rain = 0
KTAS 130124Z 10009KT 03/M13 A3018 RMK A01 T00281125  RH  031%=      5-min Rain = 0
KTAS 130125Z 10009KT 03/M13 A3018 RMK A01 T00281125  RH  031%=      5-min Rain = 0
KTAS 130126Z 10009KT 03/M13 A3018 RMK A01 T00281125  RH  031%=      5-min Rain = 0
KTAS 130127Z 10009KT 03/M13 A3018 RMK A01 T00281125  RH  031%=      5-min Rain = 0
KTAS 130128Z 10009KT 03/M13 A3018 RMK A01 T00281126  RH  031%=      5-min Rain = 0
KTAS 130129Z 10008KT 03/M13 A3018 RMK A01 T00281126  RH  031%=      5-min Rain = 0
KTAS 130130Z 09009KT 03/M13 A3018 RMK A01 T00281126  RH  031%=      5-min Rain = 0
KTAS 130131Z 09010KT 03/M13 A3019 RMK A01 T00281126  RH  031%=      5-min Rain = 0
KTAS 130132Z 09009KT 03/M13 A3019 RMK A01 T00281126  RH  031%=      5-min Rain = 0
KTAS 130133Z 09009KT 03/M13 A3019 RMK A01 T00281127  RH  031%=      5-min Rain = 0
KTAS 130134Z 08010KT 03/M13 A3019 RMK A01 T00271127  RH  031%=      5-min Rain = 0
KTAS 130135Z 08011KT 03/M13 A3019 RMK A01 T00271126  RH  031%=      5-min Rain = 0
KTAS 130136Z 08011KT 03/M13 A302 RMK A01 T00281126  RH  031%=      5-min Rain = 0
KTAS 130137Z 08011KT 03/M13 A302 RMK A01 T00301125  RH  031%=      5-min Rain = 0
KTAS 130138Z 08010KT 03/M13 A302 RMK A01 T00311125  RH  031%=      5-min Rain = 0
KTAS 130139Z 09010KT 03/M13 A3019 RMK A01 T00321126  RH  030%=      5-min Rain = 0
KTAS 130140Z 09010KT 03/M13 A3019 RMK A01 T00321126  RH  030%=      5-min Rain = 0
KTAS 130141Z 09011KT 03/M13 A3019 RMK A01 T00321126  RH  030%=      5-min Rain = 0
KTAS 130142Z 09010KT 03/M13 A3019 RMK A01 T00321126  RH  030%=      5-min Rain = 0
KTAS 130143Z 09011KT 03/M13 A302 RMK A01 T00321125  RH  031%=      5-min Rain = 0
KTAS 130144Z 09011KT 03/M13 A302 RMK A01 T00321125  RH  030%=      5-min Rain = 0
KTAS 130145Z 09010KT 03/M13 A302 RMK A01 T00321126  RH  030%=      5-min Rain = 0
KTAS 130146Z 09010KT 03/M13 A302 RMK A01 T00321125  RH  031%=      5-min Rain = 0
KTAS 130147Z 09012KT 03/M13 A302 RMK A01 T00311125  RH  031%=      5-min Rain = 0
KTAS 130148Z 09011KT 03/M13 A302 RMK A01 T00311125  RH  031%=      5-min Rain = 0
KTAS 130149Z 09011KT 03/M13 A302 RMK A01 T00311125  RH  031%=      5-min Rain = 0
KTAS 130150Z 09010KT 03/M13 A302 RMK A01 T00321125  RH  031%=      5-min Rain = 0
KTAS 130151Z 09011KT 03/M13 A302 RMK A01 T00311125  RH  031%=      5-min Rain = 0
KTAS 130152Z 09011KT 03/M13 A302 RMK A01 T00311125  RH  031%=      5-min Rain = 0
KTAS 130153Z 09010KT 03/M13 A302 RMK A01 T00301125  RH  031%=      5-min Rain = 0
KTAS 130154Z 09010KT 03/M13 A302 RMK A01 T00291125  RH  031%=      5-min Rain = 0
KTAS 130155Z 09010KT 03/M13 A302 RMK A01 T00281125  RH  031%=      5-min Rain = 0
KTAS 130156Z 09011KT 03/M13 A302 RMK A01 T00281125  RH  031%=      5-min Rain = 0
KTAS 130157Z 09012KT 03/M13 A302 RMK A01 T00281125  RH  031%=      5-min Rain = 0
KTAS 130158Z 09010KT 03/M13 A302 RMK A01 T00281125  RH  031%=      5-min Rain = 0
KTAS 130159Z 09011KT 03/M13 A302 RMK A01 T00281125  RH  031%=      5-min Rain = 0
KTAS 130200Z 09011KT 03/M13 A302 RMK A01 T00271126  RH  031%=      5-min Rain = 0
KTAS 130201Z 09010KT 03/M13 A302 RMK A01 T00271126  RH  031%=      5-min Rain = 0
KTAS 130202Z 09011KT 03/M13 A302 RMK A01 T00271126  RH  032%=      5-min Rain = 0
KTAS 130203Z 09010KT 03/M13 A302 RMK A01 T00271126  RH  032%=      5-min Rain = 0
KTAS 130204Z 10010KT 03/M13 A302 RMK A01 T00261126  RH  032%=      5-min Rain = 0
KTAS 130205Z 09011KT 03/M13 A3021 RMK A01 T00261126  RH  032%=      5-min Rain = 0
KTAS 130206Z 09013KT 03/M13 A3021 RMK A01 T00271126  RH  032%=      5-min Rain = 0
KTAS 130207Z 09012KT 03/M13 A3021 RMK A01 T00271126  RH  031%=      5-min Rain = 0
KTAS 130208Z 09012KT 03/M13 A3021 RMK A01 T00271126  RH  031%=      5-min Rain = 0
KTAS 130209Z 09012KT 03/M13 A3021 RMK A01 T00271126  RH  031%=      5-min Rain = 0
KTAS 130210Z 10012KT 03/M13 A3021 RMK A01 T00271127  RH  031%=      5-min Rain = 0
KTAS 130211Z 09012KT 03/M13 A3021 RMK A01 T00271127  RH  031%=      5-min Rain = 0
KTAS 130212Z 10013KT 03/M13 A3021 RMK A01 T00271127  RH  031%=      5-min Rain = 0
KTAS 130213Z 10012KT 03/M13 A3021 RMK A01 T00271127  RH  031%=      5-min Rain = 0
KTAS 130214Z 10012KT 03/M13 A3021 RMK A01 T00261127  RH  031%=      5-min Rain = 0
KTAS 130215Z 10012KT 03/M13 A3021 RMK A01 T00261127  RH  031%=      5-min Rain = 0
KTAS 130216Z 09012KT 03/M13 A3021 RMK A01 T00251128  RH  031%=      5-min Rain = 0
KTAS 130217Z 09010KT 03/M13 A3021 RMK A01 T00251128  RH  031%=      5-min Rain = 0
KTAS 130218Z 09011KT 02/M13 A3022 RMK A01 T00241128  RH  032%=      5-min Rain = 0
KTAS 130219Z 09012KT 02/M13 A3022 RMK A01 T00241128  RH  032%=      5-min Rain = 0
KTAS 130220Z 09012KT 02/M13 A3022 RMK A01 T00241128  RH  032%=      5-min Rain = 0
KTAS 130221Z 08010KT 02/M13 A3022 RMK A01 T00241128  RH  032%=      5-min Rain = 0
KTAS 130222Z 09012KT 02/M13 A3022 RMK A01 T00231128  RH  032%=      5-min Rain = 0
KTAS 130223Z 08012KT 02/M13 A3022 RMK A01 T00231128  RH  032%=      5-min Rain = 0
KTAS 130224Z 08013KT 02/M13 A3023 RMK A01 T00221128  RH  032%=      5-min Rain = 0
KTAS 130225Z 09010KT 02/M13 A3023 RMK A01 T00221128  RH  032%=      5-min Rain = 0
KTAS 130226Z 08012KT 02/M13 A3023 RMK A01 T00211129  RH  032%=      5-min Rain = 0
KTAS 130227Z 08011KT 02/M13 A3023 RMK A01 T00211128  RH  032%=      5-min Rain = 0
KTAS 130228Z 09012KT 02/M13 A3023 RMK A01 T00211129  RH  032%=      5-min Rain = 0
KTAS 130229Z 08011KT 02/M13 A3023 RMK A01 T00211129  RH  032%=      5-min Rain = 0
KTAS 130230Z 09011KT 02/M13 A3023 RMK A01 T00201130  RH  032%=      5-min Rain = 0
KTAS 130231Z 09011KT 02/M13 A3023 RMK A01 T00191130  RH  032%=      5-min Rain = 0
KTAS 130232Z 09011KT 02/M13 A3023 RMK A01 T00191130  RH  032%=      5-min Rain = 0
KTAS 130233Z 09012KT 02/M13 A3023 RMK A01 T00191130  RH  032%=      5-min Rain = 0
KTAS 130234Z 09010KT 02/M13 A3023 RMK A01 T00191130  RH  032%=      5-min Rain = 0
KTAS 130235Z 09011KT 02/M13 A3023 RMK A01 T00191130  RH  032%=      5-min Rain = 0
KTAS 130236Z 09011G16KT 02/M13 A3023 RMK A01 T00181130  RH  032%=      5-min Rain = 0
KTAS 130237Z 09010KT 02/M13 A3023 RMK A01 T00181130  RH  032%=      5-min Rain = 0
KTAS 130238Z 09012KT 02/M13 A3023 RMK A01 T00171131  RH  032%=      5-min Rain = 0
KTAS 130239Z 08013KT 02/M13 A3023 RMK A01 T00171130  RH  032%=      5-min Rain = 0
KTAS 130240Z 09013KT 02/M13 A3024 RMK A01 T00181130  RH  032%=      5-min Rain = 0
KTAS 130241Z 09012KT 02/M13 A3024 RMK A01 T00181131  RH  032%=      5-min Rain = 0
KTAS 130242Z 09013KT 02/M13 A3024 RMK A01 T00171131  RH  032%=      5-min Rain = 0
KTAS 130243Z 09011KT 02/M13 A3024 RMK A01 T00171131  RH  032%=      5-min Rain = 0
KTAS 130244Z 09012KT 02/M13 A3024 RMK A01 T00161132  RH  032%=      5-min Rain = 0
KTAS 130245Z 09012KT 02/M13 A3024 RMK A01 T00161131  RH  033%=      5-min Rain = 0
KTAS 130246Z 09012KT 02/M13 A3024 RMK A01 T00161131  RH  033%=      5-min Rain = 0
KTAS 130247Z 09012KT 02/M13 A3024 RMK A01 T00151132  RH  033%=      5-min Rain = 0
KTAS 130248Z 09012KT 02/M13 A3025 RMK A01 T00161132  RH  033%=      5-min Rain = 0
KTAS 130249Z 09012KT 02/M13 A3025 RMK A01 T00151132  RH  033%=      5-min Rain = 0
KTAS 130250Z 09013KT 02/M13 A3025 RMK A01 T00151132  RH  033%=      5-min Rain = 0
KTAS 130251Z 09011KT 02/M13 A3025 RMK A01 T00151131  RH  033%=      5-min Rain = 0
KTAS 130252Z 08011KT 02/M13 A3025 RMK A01 T00151132  RH  033%=      5-min Rain = 0
KTAS 130253Z 08012KT 02/M13 A3025 RMK A01 T00151132  RH  033%=      5-min Rain = 0
KTAS 130254Z 08013KT 02/M13 A3025 RMK A01 T00151132  RH  033%=      5-min Rain = 0
KTAS 130255Z 08013KT 02/M13 A3025 RMK A01 T00151131  RH  033%=      5-min Rain = 0
KTAS 130256Z 08013KT 02/M13 A3026 RMK A01 T00161131  RH  033%=      5-min Rain = 0
KTAS 130257Z 08012KT 02/M13 A3026 RMK A01 T00151132  RH  033%=      5-min Rain = 0
KTAS 130258Z 08013KT 02/M13 A3026 RMK A01 T00151132  RH  033%=      5-min Rain = 0
KTAS 130259Z 08012KT 02/M13 A3026 RMK A01 T00151131  RH  033%=      5-min Rain = 0
KTAS 130300Z 08013KT 01/M13 A3026 RMK A01 T00141131  RH  033%=      5-min Rain = 0
KTAS 130301Z 08013KT 02/M13 A3026 RMK A01 T00151130  RH  033%=      5-min Rain = 0
KTAS 130302Z 08013KT 01/M13 A3026 RMK A01 T00141130  RH  033%=      5-min Rain = 0
KTAS 130303Z 08014KT 01/M13 A3027 RMK A01 T00141130  RH  033%=      5-min Rain = 0
KTAS 130304Z 08013KT 01/M13 A3026 RMK A01 T00141131  RH  033%=      5-min Rain = 0
KTAS 130305Z 08011KT 01/M13 A3027 RMK A01 T00141131  RH  033%=      5-min Rain = 0
KTAS 130306Z 08012KT 01/M13 A3027 RMK A01 T00141132  RH  033%=      5-min Rain = 0
KTAS 130307Z 08013KT 01/M13 A3027 RMK A01 T00141132  RH  033%=      5-min Rain = 0
KTAS 130308Z 08011KT 01/M13 A3027 RMK A01 T00141132  RH  033%=      5-min Rain = 0
KTAS 130309Z 07014KT 01/M13 A3027 RMK A01 T00141132  RH  033%=      5-min Rain = 0
KTAS 130310Z 07013KT 01/M13 A3027 RMK A01 T00141132  RH  033%=      5-min Rain = 0
KTAS 130311Z 07012KT 01/M13 A3027 RMK A01 T00141131  RH  033%=      5-min Rain = 0
KTAS 130312Z 08013KT 01/M13 A3027 RMK A01 T00141132  RH  033%=      5-min Rain = 0
KTAS 130313Z 08012KT 01/M13 A3028 RMK A01 T00141132  RH  033%=      5-min Rain = 0
KTAS 130314Z 07013KT 01/M13 A3028 RMK A01 T00141132  RH  033%=      5-min Rain = 0
KTAS 130315Z 07012KT 01/M13 A3028 RMK A01 T00141133  RH  033%=      5-min Rain = 0
KTAS 130316Z 07013KT 01/M13 A3028 RMK A01 T00141133  RH  033%=      5-min Rain = 0
KTAS 130317Z 07013KT 01/M13 A3028 RMK A01 T00141133  RH  033%=      5-min Rain = 0
KTAS 130318Z 07014KT 01/M13 A3028 RMK A01 T00141133  RH  033%=      5-min Rain = 0
KTAS 130319Z 08014KT 01/M13 A3028 RMK A01 T00141133  RH  033%=      5-min Rain = 0
KTAS 130320Z 07015KT 01/M13 A3028 RMK A01 T00141133  RH  033%=      5-min Rain = 0
KTAS 130321Z 07015KT 01/M13 A3028 RMK A01 T00141133  RH  032%=      5-min Rain = 0
KTAS 130322Z 08013KT 01/M13 A3028 RMK A01 T00141133  RH  032%=      5-min Rain = 0
KTAS 130323Z 08012KT 01/M13 A3028 RMK A01 T00141133  RH  032%=      5-min Rain = 0
KTAS 130324Z 08011KT 01/M13 A3029 RMK A01 T00141133  RH  033%=      5-min Rain = 0
KTAS 130325Z 08012KT 01/M13 A3029 RMK A01 T00131133  RH  033%=      5-min Rain = 0
KTAS 130326Z 08013KT 01/M13 A3029 RMK A01 T00131133  RH  033%=      5-min Rain = 0
KTAS 130327Z 08015KT 01/M13 A3029 RMK A01 T00131134  RH  033%=      5-min Rain = 0
KTAS 130328Z 08014KT 01/M13 A3029 RMK A01 T00141134  RH  032%=      5-min Rain = 0
KTAS 130329Z 07013KT 01/M13 A3029 RMK A01 T00131134  RH  033%=      5-min Rain = 0
KTAS 130330Z 08012KT 01/M13 A3029 RMK A01 T00121134  RH  033%=      5-min Rain = 0
KTAS 130331Z 07014KT 01/M13 A3029 RMK A01 T00121134  RH  033%=      5-min Rain = 0
KTAS 130332Z 08012KT 01/M13 A3029 RMK A01 T00121134  RH  033%=      5-min Rain = 0
KTAS 130333Z 07011KT 01/M13 A3029 RMK A01 T00111134  RH  033%=      5-min Rain = 0
KTAS 130334Z 08012KT 01/M13 A3029 RMK A01 T00111134  RH  033%=      5-min Rain = 0
KTAS 130335Z 08013KT 01/M14 A3029 RMK A01 T00101135  RH  033%=      5-min Rain = 0
KTAS 130336Z 08012KT 01/M14 A303 RMK A01 T00101135  RH  033%=      5-min Rain = 0
KTAS 130337Z 07013KT 01/M14 A303 RMK A01 T00101135  RH  033%=      5-min Rain = 0
KTAS 130338Z 07014KT 01/M14 A303 RMK A01 T00101135  RH  033%=      5-min Rain = 0
KTAS 130339Z 07013KT 01/M14 A303 RMK A01 T00091135  RH  033%=      5-min Rain = 0
KTAS 130340Z 07016KT 01/M14 A303 RMK A01 T00091135  RH  033%=      5-min Rain = 0
KTAS 130341Z 06012KT 01/M13 A303 RMK A01 T00091134  RH  033%=      5-min Rain = 0
KTAS 130342Z 07013KT 01/M13 A303 RMK A01 T00081134  RH  034%=      5-min Rain = 0
KTAS 130343Z 07013KT 01/M13 A3031 RMK A01 T00081134  RH  034%=      5-min Rain = 0
KTAS 130344Z 07012KT 01/M13 A3031 RMK A01 T00081134  RH  034%=      5-min Rain = 0
KTAS 130345Z 07012KT 01/M13 A3031 RMK A01 T00071134  RH  034%=      5-min Rain = 0
KTAS 130346Z 08013KT 01/M13 A3031 RMK A01 T00071134  RH  034%=      5-min Rain = 0
KTAS 130347Z 07014KT 01/M14 A3031 RMK A01 T00061135  RH  034%=      5-min Rain = 0
KTAS 130348Z 07014KT 01/M13 A3031 RMK A01 T00071134  RH  034%=      5-min Rain = 0
KTAS 130349Z 07011KT 01/M13 A3031 RMK A01 T00061134  RH  034%=      5-min Rain = 0
KTAS 130350Z 07013KT 01/M13 A3031 RMK A01 T00061134  RH  034%=      5-min Rain = 0
KTAS 130351Z 07011KT 01/M13 A3031 RMK A01 T00051134  RH  034%=      5-min Rain = 0
KTAS 130352Z 07011G16KT 01/M13 A3031 RMK A01 T00051134  RH  034%=      5-min Rain = 0
KTAS 130353Z 07013KT 01/M13 A3031 RMK A01 T00051134  RH  035%=      5-min Rain = 0
KTAS 130354Z 07012KT 01/M13 A3032 RMK A01 T00051133  RH  035%=      5-min Rain = 0
KTAS 130355Z 07011KT 00/M13 A3032 RMK A01 T00041133  RH  035%=      5-min Rain = 0
KTAS 130356Z 07010KT 00/M13 A3032 RMK A01 T00041134  RH  035%=      5-min Rain = 0
KTAS 130357Z 06011KT 00/M13 A3032 RMK A01 T00031134  RH  035%=      5-min Rain = 0
KTAS 130358Z 07011KT 00/M13 A3032 RMK A01 T00021134  RH  035%=      5-min Rain = 0
KTAS 130359Z 06012KT 00/M13 A3032 RMK A01 T00021134  RH  035%=      5-min Rain = 0
KTAS 130400Z 06012KT 00/M13 A3032 RMK A01 T00021134  RH  035%=      5-min Rain = 0
KTAS 130401Z 06011KT 00/M13 A3033 RMK A01 T00011134  RH  036%=      5-min Rain = 0
KTAS 130402Z 06011G16KT 00/13 A3032 RMK A01 T00000-134  RH  036%=      5-min Rain = 0
KTAS 130403Z 06011KT 00/13 A3032 RMK A01 T00000-133  RH  036%=      5-min Rain = 0
KTAS 130404Z 06011KT 00/13 A3032 RMK A01 T00-00-133  RH  036%=      5-min Rain = 0
KTAS 130405Z 07011G16KT M00/M13 A3033 RMK A01 T10011133  RH  036%=      5-min Rain = 0
KTAS 130406Z 07015KT M00/M13 A3033 RMK A01 T10011133  RH  036%=      5-min Rain = 0
KTAS 130407Z 06014KT M00/M13 A3033 RMK A01 T10011132  RH  037%=      5-min Rain = 0
KTAS 130408Z 06012KT M00/M13 A3033 RMK A01 T10021133  RH  037%=      5-min Rain = 0
KTAS 130409Z 07011KT M00/M13 A3033 RMK A01 T10021133  RH  037%=      5-min Rain = 0
KTAS 130410Z 07014KT M00/M13 A3033 RMK A01 T10031132  RH  037%=      5-min Rain = 0
KTAS 130411Z 07014KT M00/M13 A3033 RMK A01 T10031132  RH  037%=      5-min Rain = 0
KTAS 130412Z 07014KT M00/M13 A3033 RMK A01 T10031132  RH  037%=      5-min Rain = 0
KTAS 130413Z 07013KT M00/M13 A3033 RMK A01 T10031132  RH  037%=      5-min Rain = 0
KTAS 130414Z 08012G17KT M00/M13 A3033 RMK A01 T10041132  RH  037%=      5-min Rain = 0
KTAS 130415Z 07011KT M00/M13 A3033 RMK A01 T10041132  RH  038%=      5-min Rain = 0
KTAS 130416Z 07012KT M01/M13 A3033 RMK A01 T10051132  RH  038%=      5-min Rain = 0
KTAS 130417Z 07012KT M01/M13 A3033 RMK A01 T10051132  RH  038%=      5-min Rain = 0
KTAS 130418Z 06010KT M01/M13 A3033 RMK A01 T10061132  RH  038%=      5-min Rain = 0
KTAS 130419Z 06009KT M01/M13 A3033 RMK A01 T10071132  RH  038%=      5-min Rain = 0
KTAS 130420Z 06011KT M01/M13 A3033 RMK A01 T10071132  RH  038%=      5-min Rain = 0
KTAS 130421Z 07013KT M01/M13 A3033 RMK A01 T10071132  RH  038%=      5-min Rain = 0
KTAS 130422Z 07012KT M01/M13 A3033 RMK A01 T10071132  RH  038%=      5-min Rain = 0
KTAS 130423Z 07012KT M01/M13 A3033 RMK A01 T10071132  RH  038%=      5-min Rain = 0
KTAS 130424Z 07009KT M01/M13 A3033 RMK A01 T10081132  RH  038%=      5-min Rain = 0
KTAS 130425Z 07013KT M01/M13 A3034 RMK A01 T10091132  RH  039%=      5-min Rain = 0
KTAS 130426Z 06013KT M01/M13 A3034 RMK A01 T10081132  RH  039%=      5-min Rain = 0
KTAS 130427Z 06012KT M01/M13 A3034 RMK A01 T10091132  RH  039%=      5-min Rain = 0
KTAS 130428Z 06011KT M01/M13 A3034 RMK A01 T10091132  RH  039%=      5-min Rain = 0
KTAS 130429Z 07010KT M01/M13 A3034 RMK A01 T10091132  RH  039%=      5-min Rain = 0
KTAS 130430Z 07011KT M01/M13 A3034 RMK A01 T10101132  RH  039%=      5-min Rain = 0
KTAS 130431Z 07011KT M01/M13 A3034 RMK A01 T10101132  RH  039%=      5-min Rain = 0
KTAS 130432Z 06010KT M01/M13 A3034 RMK A01 T10101132  RH  039%=      5-min Rain = 0
KTAS 130433Z 07011KT M01/M13 A3034 RMK A01 T10111132  RH  039%=      5-min Rain = 0
KTAS 130434Z 06013KT M01/M13 A3034 RMK A01 T10111132  RH  039%=      5-min Rain = 0
KTAS 130435Z 07011KT M01/M13 A3034 RMK A01 T10111132  RH  039%=      5-min Rain = 0
KTAS 130436Z 07010KT M01/M13 A3034 RMK A01 T10111132  RH  039%=      5-min Rain = 0
KTAS 130437Z 07012KT M01/M13 A3034 RMK A01 T10121132  RH  039%=      5-min Rain = 0
KTAS 130438Z 07008KT M01/M13 A3034 RMK A01 T10111132  RH  039%=      5-min Rain = 0
KTAS 130439Z 06009KT M01/M13 A3034 RMK A01 T10121132  RH  040%=      5-min Rain = 0
KTAS 130440Z 06010KT M01/M13 A3034 RMK A01 T10121132  RH  040%=      5-min Rain = 0
KTAS 130441Z 06009KT M01/M13 A3035 RMK A01 T10131132  RH  040%=      5-min Rain = 0
KTAS 130442Z 06010KT M01/M13 A3035 RMK A01 T10131132  RH  040%=      5-min Rain = 0
KTAS 130443Z 06011KT M01/M13 A3035 RMK A01 T10131132  RH  040%=      5-min Rain = 0
KTAS 130444Z 07010KT M01/M13 A3035 RMK A01 T10131132  RH  040%=      5-min Rain = 0
KTAS 130445Z 07011KT M01/M13 A3035 RMK A01 T10131132  RH  040%=      5-min Rain = 0
KTAS 130446Z 07011KT M01/M13 A3035 RMK A01 T10131132  RH  040%=      5-min Rain = 0
KTAS 130447Z 06009KT M01/M13 A3035 RMK A01 T10131132  RH  040%=      5-min Rain = 0
KTAS 130448Z 06011KT M01/M13 A3035 RMK A01 T10141133  RH  040%=      5-min Rain = 0
KTAS 130449Z 06011KT M01/M13 A3035 RMK A01 T10141132  RH  040%=      5-min Rain = 0
KTAS 130450Z 06010KT M01/M13 A3036 RMK A01 T10141132  RH  040%=      5-min Rain = 0
KTAS 130451Z 05011KT M02/M13 A3036 RMK A01 T10151133  RH  040%=      5-min Rain = 0
KTAS 130452Z 06012KT M02/M13 A3036 RMK A01 T10151132  RH  040%=      5-min Rain = 0
KTAS 130453Z 06012KT M01/M13 A3036 RMK A01 T10141132  RH  040%=      5-min Rain = 0
KTAS 130454Z 06012KT M01/M13 A3036 RMK A01 T10141132  RH  040%=      5-min Rain = 0
KTAS 130455Z 07012KT M01/M13 A3036 RMK A01 T10141132  RH  040%=      5-min Rain = 0
KTAS 130456Z 06011KT M01/M13 A3036 RMK A01 T10141133  RH  040%=      5-min Rain = 0
KTAS 130457Z 06010KT M02/M13 A3036 RMK A01 T10151133  RH  040%=      5-min Rain = 0
KTAS 130458Z 06011KT M02/M13 A3036 RMK A01 T10151133  RH  040%=      5-min Rain = 0
KTAS 130459Z 06012KT M02/M13 A3036 RMK A01 T10151133  RH  040%=      5-min Rain = 0
KTAS 130500Z 06010KT M02/M13 A3036 RMK A01 T10151132  RH  040%=      5-min Rain = 0
KTAS 130501Z 06010KT M02/M13 A3036 RMK A01 T10151132  RH  040%=      5-min Rain = 0
KTAS 130502Z 07011KT M02/M13 A3036 RMK A01 T10151132  RH  040%=      5-min Rain = 0
KTAS 130503Z 06010KT M02/M13 A3036 RMK A01 T10151132  RH  040%=      5-min Rain = 0
KTAS 130504Z 06012KT M02/M13 A3037 RMK A01 T10151133  RH  040%=      5-min Rain = 0
KTAS 130505Z 06012G17KT M01/M13 A3037 RMK A01 T10141132  RH  040%=      5-min Rain = 0
KTAS 130506Z 06012KT M01/M13 A3037 RMK A01 T10141132  RH  040%=      5-min Rain = 0
KTAS 130507Z 06011KT M01/M13 A3037 RMK A01 T10141132  RH  040%=      5-min Rain = 0
KTAS 130508Z 06012KT M01/M13 A3037 RMK A01 T10141132  RH  040%=      5-min Rain = 0
KTAS 130509Z 07010KT M01/M13 A3037 RMK A01 T10141132  RH  040%=      5-min Rain = 0
KTAS 130510Z 06011KT M01/M13 A3037 RMK A01 T10141132  RH  040%=      5-min Rain = 0
KTAS 130511Z 06012KT M01/M13 A3037 RMK A01 T10141132  RH  040%=      5-min Rain = 0
KTAS 130512Z 06012KT M01/M13 A3037 RMK A01 T10141132  RH  040%=      5-min Rain = 0
KTAS 130513Z 06012KT M01/M13 A3037 RMK A01 T10141132  RH  040%=      5-min Rain = 0
KTAS 130514Z 07011KT M01/M13 A3037 RMK A01 T10141133  RH  040%=      5-min Rain = 0
KTAS 130515Z 06010KT M01/M13 A3037 RMK A01 T10141133  RH  040%=      5-min Rain = 0
KTAS 130516Z 06010KT M01/M13 A3037 RMK A01 T10141133  RH  040%=      5-min Rain = 0
KTAS 130517Z 06011KT M01/M13 A3037 RMK A01 T10141133  RH  040%=      5-min Rain = 0
KTAS 130518Z 06010KT M01/M13 A3037 RMK A01 T10141133  RH  040%=      5-min Rain = 0
KTAS 130519Z 06011KT M01/M13 A3037 RMK A01 T10141133  RH  040%=      5-min Rain = 0
KTAS 130520Z 06009KT M01/M13 A3037 RMK A01 T10131133  RH  040%=      5-min Rain = 0
KTAS 130521Z 06009KT M01/M13 A3037 RMK A01 T10131133  RH  040%=      5-min Rain = 0
KTAS 130522Z 06011KT M01/M13 A3038 RMK A01 T10131133  RH  040%=      5-min Rain = 0
KTAS 130523Z 06011KT M01/M13 A3038 RMK A01 T10131133  RH  040%=      5-min Rain = 0
KTAS 130524Z 06011KT M01/M13 A3038 RMK A01 T10121133  RH  039%=      5-min Rain = 0
KTAS 130525Z 06010KT M01/M13 A3038 RMK A01 T10121133  RH  039%=      5-min Rain = 0
KTAS 130526Z 06011KT M01/M13 A3038 RMK A01 T10121133  RH  039%=      5-min Rain = 0
KTAS 130527Z 06010KT M01/M13 A3038 RMK A01 T10121133  RH  039%=      5-min Rain = 0
KTAS 130528Z 06009KT M01/M13 A3038 RMK A01 T10121133  RH  039%=      5-min Rain = 0
KTAS 130529Z 06009KT M01/M13 A3039 RMK A01 T10121133  RH  039%=      5-min Rain = 0
KTAS 130530Z 05011KT M01/M13 A3039 RMK A01 T10121133  RH  039%=      5-min Rain = 0
KTAS 130531Z 05011KT M01/M13 A3039 RMK A01 T10111133  RH  039%=      5-min Rain = 0
KTAS 130532Z 05010KT M01/M13 A3039 RMK A01 T10111133  RH  039%=      5-min Rain = 0
KTAS 130533Z 05010KT M01/M13 A3039 RMK A01 T10111133  RH  039%=      5-min Rain = 0
KTAS 130534Z 05011KT M01/M13 A3039 RMK A01 T10111133  RH  039%=      5-min Rain = 0
KTAS 130535Z 06009KT M01/M13 A3039 RMK A01 T10111133  RH  039%=      5-min Rain = 0
KTAS 130536Z 06009KT M01/M13 A3039 RMK A01 T10111133  RH  039%=      5-min Rain = 0
KTAS 130537Z 05010KT M01/M13 A3039 RMK A01 T10111133  RH  039%=      5-min Rain = 0
KTAS 130538Z 06010KT M01/M13 A3039 RMK A01 T10101133  RH  039%=      5-min Rain = 0
KTAS 130539Z 05010KT M01/M13 A3039 RMK A01 T10101133  RH  039%=      5-min Rain = 0
KTAS 130540Z 06010KT M01/M13 A3039 RMK A01 T10101133  RH  039%=      5-min Rain = 0
KTAS 130541Z 06009KT M01/M13 A3039 RMK A01 T10101133  RH  039%=      5-min Rain = 0
KTAS 130542Z 07009KT M01/M13 A3039 RMK A01 T10101133  RH  039%=      5-min Rain = 0
KTAS 130543Z 07008KT M01/M13 A3039 RMK A01 T10101133  RH  039%=      5-min Rain = 0
KTAS 130544Z 07009KT M01/M13 A3038 RMK A01 T10101133  RH  039%=      5-min Rain = 0
KTAS 130545Z 07010KT M01/M13 A3039 RMK A01 T10101133  RH  039%=      5-min Rain = 0
KTAS 130546Z 07010KT M01/M13 A3039 RMK A01 T10101133  RH  039%=      5-min Rain = 0
KTAS 130547Z 07010KT M01/M13 A3039 RMK A01 T10101133  RH  039%=      5-min Rain = 0
KTAS 130548Z 07011KT M01/M13 A3039 RMK A01 T10101134  RH  039%=      5-min Rain = 0
KTAS 130549Z 06010KT M01/M13 A3039 RMK A01 T10101134  RH  039%=      5-min Rain = 0
KTAS 130550Z 06011KT M01/M13 A3039 RMK A01 T10101134  RH  038%=      5-min Rain = 0
KTAS 130551Z 06010KT M01/M13 A3039 RMK A01 T10101134  RH  038%=      5-min Rain = 0
KTAS 130552Z 06009KT M01/M13 A3039 RMK A01 T10101134  RH  038%=      5-min Rain = 0
KTAS 130553Z 06010KT M01/M13 A3039 RMK A01 T10101134  RH  038%=      5-min Rain = 0
KTAS 130554Z 06008KT M01/M13 A3039 RMK A01 T10101134  RH  038%=      5-min Rain = 0
KTAS 130555Z 06010KT M01/M13 A3039 RMK A01 T10101134  RH  039%=      5-min Rain = 0
KTAS 130556Z 06010KT M01/M13 A3039 RMK A01 T10101134  RH  039%=      5-min Rain = 0
KTAS 130557Z 07008KT M01/M13 A3039 RMK A01 T10101134  RH  039%=      5-min Rain = 0
KTAS 130558Z 07008KT M01/M13 A3039 RMK A01 T10101134  RH  039%=      5-min Rain = 0
KTAS 130559Z 07007KT M01/M13 A3039 RMK A01 T10111134  RH  039%=      5-min Rain = 0

Page generated in 0.1846 seconds.